Time,TemperatureF,DewpointF,PressureIn,WindDirection,WindDirectionDegrees,WindSpeedMPH,WindSpeedGustMPH,Humidity,HourlyPrecipIn,Conditions,Clouds,dailyrainin,SolarRadiationWatts/m^2,SoftwareType,DateUTC
2013-04-05 00:02:00,31.2,26.3,30.17,NW,312,0.0,0.0,82,0.00,,,0.00,0,Wunderground v.1.15,2013-04-05 05:02:00,
2013-04-05 00:04:00,31.1,26.2,30.17,NW,312,0.0,0.0,82,0.00,,,0.00,0,Wunderground v.1.15,2013-04-05 05:04:00,
2013-04-05 00:09:00,30.8,26.2,30.17,NW,313,0.0,1.0,83,0.00,,,0.00,0,Wunderground v.1.15,2013-04-05 05:09:00,
2013-04-05 00:10:00,30.9,26.6,30.17,NW,312,0.0,0.0,84,0.00,,,0.00,0,Wunderground v.1.15,2013-04-05 05:10:00,
2013-04-05 00:11:00,31.0,26.7,30.17,NW,312,0.0,0.0,84,0.00,,,0.00,0,Wunderground v.1.15,2013-04-05 05:11:00,
2013-04-05 00:15:00,30.8,26.5,30.17,NW,313,0.0,1.0,84,0.00,,,0.00,0,Wunderground v.1.15,2013-04-05 05:15:00,
2013-04-05 00:19:00,30.6,26.3,30.17,NW,312,0.0,1.0,84,0.00,,,0.00,0,Wunderground v.1.15,2013-04-05 05:19:00,
2013-04-05 00:21:00,30.3,26.0,30.17,NW,312,0.0,2.0,84,0.00,,,0.00,0,Wunderground v.1.15,2013-04-05 05:21:00,
2013-04-05 00:22:00,30.3,26.0,30.17,NW,312,0.0,2.0,84,0.00,,,0.00,0,Wunderground v.1.15,2013-04-05 05:22:00,
2013-04-05 00:24:00,30.1,25.8,30.17,NW,312,0.0,2.0,84,0.00,,,0.00,0,Wunderground v.1.15,2013-04-05 05:24:00,
2013-04-05 00:26:00,29.9,25.7,30.17,NW,312,0.0,2.0,84,0.00,,,0.00,0,Wunderground v.1.15,2013-04-05 05:26:00,
2013-04-05 00:28:00,29.7,25.7,30.17,NW,312,0.0,2.0,85,0.00,,,0.00,0,Wunderground v.1.15,2013-04-05 05:28:00,
2013-04-05 00:32:00,29.5,25.5,30.17,NW,312,1.0,1.0,85,0.00,,,0.00,0,Wunderground v.1.15,2013-04-05 05:32:00,
2013-04-05 00:34:00,29.4,25.7,30.17,NW,313,1.0,1.0,86,0.00,,,0.00,0,Wunderground v.1.15,2013-04-05 05:34:00,
2013-04-05 00:39:00,29.3,25.6,30.17,NW,313,1.0,1.0,86,0.00,,,0.00,0,Wunderground v.1.15,2013-04-05 05:39:00,
2013-04-05 00:42:00,29.4,25.7,30.17,NW,312,0.0,1.0,86,0.00,,,0.00,0,Wunderground v.1.15,2013-04-05 05:42:00,
2013-04-05 00:45:00,29.6,26.2,30.17,NW,312,0.0,1.0,87,0.00,,,0.00,0,Wunderground v.1.15,2013-04-05 05:45:00,
2013-04-05 00:46:00,29.6,26.2,30.17,NW,313,0.0,1.0,87,0.00,,,0.00,0,Wunderground v.1.15,2013-04-05 05:46:00,
2013-04-05 00:51:00,29.7,26.0,30.18,NW,312,0.0,0.0,86,0.00,,,0.00,0,Wunderground v.1.15,2013-04-05 05:51:00,
2013-04-05 00:55:00,29.6,25.9,30.18,NW,313,0.0,1.0,86,0.00,,,0.00,0,Wunderground v.1.15,2013-04-05 05:55:00,
2013-04-05 00:56:00,29.6,25.9,30.18,NW,312,0.0,1.0,86,0.00,,,0.00,0,Wunderground v.1.15,2013-04-05 05:56:00,
2013-04-05 01:00:00,29.7,26.0,30.18,NW,312,0.0,0.0,86,0.00,,,0.00,0,Wunderground v.1.15,2013-04-05 06:00:00,
2013-04-05 01:01:00,29.8,26.1,30.18,NW,312,0.0,0.0,86,0.00,,,0.00,0,Wunderground v.1.15,2013-04-05 06:01:00,
2013-04-05 01:02:00,29.8,26.1,30.18,NW,312,0.0,0.0,86,0.00,,,0.00,0,Wunderground v.1.15,2013-04-05 06:02:00,
2013-04-05 01:04:00,29.8,26.1,30.18,NW,312,0.0,0.0,86,0.00,,,0.00,0,Wunderground v.1.15,2013-04-05 06:04:00,
2013-04-05 01:06:00,29.8,25.8,30.18,NW,312,0.0,0.0,85,0.00,,,0.00,0,Wunderground v.1.15,2013-04-05 06:06:00,
2013-04-05 01:09:00,29.6,25.6,30.18,NW,313,0.0,0.0,85,0.00,,,0.00,0,Wunderground v.1.15,2013-04-05 06:09:00,
2013-04-05 01:10:00,29.5,25.5,30.18,NW,312,0.0,0.0,85,0.00,,,0.00,0,Wunderground v.1.15,2013-04-05 06:10:00,
2013-04-05 01:12:00,29.5,25.5,30.18,NW,312,0.0,0.0,85,0.00,,,0.00,0,Wunderground v.1.15,2013-04-05 06:12:00,
2013-04-05 01:16:00,29.4,25.4,30.19,NW,312,0.0,1.0,85,0.00,,,0.00,0,Wunderground v.1.15,2013-04-05 06:16:00,
2013-04-05 01:17:00,29.4,25.7,30.19,NW,312,0.0,1.0,86,0.00,,,0.00,0,Wunderground v.1.15,2013-04-05 06:17:00,
2013-04-05 01:19:00,29.5,25.8,30.19,NW,312,0.0,1.0,86,0.00,,,0.00,0,Wunderground v.1.15,2013-04-05 06:19:00,
2013-04-05 01:22:00,29.5,25.5,30.19,NW,312,0.0,0.0,85,0.00,,,0.00,0,Wunderground v.1.15,2013-04-05 06:22:00,
2013-04-05 01:24:00,29.4,25.4,30.19,NW,312,0.0,0.0,85,0.00,,,0.00,0,Wunderground v.1.15,2013-04-05 06:24:00,
2013-04-05 01:25:00,29.4,25.4,30.19,NW,312,0.0,0.0,85,0.00,,,0.00,0,Wunderground v.1.15,2013-04-05 06:25:00,
2013-04-05 01:29:00,29.3,25.4,30.19,NW,312,0.0,0.0,85,0.00,,,0.00,0,Wunderground v.1.15,2013-04-05 06:29:00,
2013-04-05 01:30:00,29.2,25.3,30.19,NW,312,0.0,0.0,85,0.00,,,0.00,0,Wunderground v.1.15,2013-04-05 06:30:00,
2013-04-05 01:35:00,28.8,24.9,30.19,NW,312,0.0,0.0,85,0.00,,,0.00,0,Wunderground v.1.15,2013-04-05 06:35:00,
2013-04-05 01:38:00,29.0,25.3,30.19,NW,312,0.0,0.0,86,0.00,,,0.00,0,Wunderground v.1.15,2013-04-05 06:38:00,
2013-04-05 01:41:00,29.0,25.3,30.19,NW,312,0.0,0.0,86,0.00,,,0.00,0,Wunderground v.1.15,2013-04-05 06:41:00,
2013-04-05 01:44:00,28.8,25.1,30.19,NW,312,0.0,0.0,86,0.00,,,0.00,0,Wunderground v.1.15,2013-04-05 06:44:00,
2013-04-05 01:46:00,28.7,25.0,30.20,NW,312,0.0,0.0,86,0.00,,,0.00,0,Wunderground v.1.15,2013-04-05 06:46:00,
2013-04-05 01:49:00,28.7,25.0,30.20,NW,312,0.0,0.0,86,0.00,,,0.00,0,Wunderground v.1.15,2013-04-05 06:49:00,
2013-04-05 01:50:00,28.7,25.0,30.20,NW,313,0.0,0.0,86,0.00,,,0.00,0,Wunderground v.1.15,2013-04-05 06:50:00,
2013-04-05 01:51:00,28.7,25.0,30.20,NW,312,0.0,0.0,86,0.00,,,0.00,0,Wunderground v.1.15,2013-04-05 06:51:00,
2013-04-05 01:55:00,28.8,25.1,30.20,NW,312,0.0,0.0,86,0.00,,,0.00,0,Wunderground v.1.15,2013-04-05 06:55:00,
2013-04-05 01:56:00,28.8,25.1,30.20,NW,313,0.0,0.0,86,0.00,,,0.00,0,Wunderground v.1.15,2013-04-05 06:56:00,
2013-04-05 01:57:00,28.7,26.7,30.20,NW,312,0.0,0.0,92,0.00,,,0.00,0,Wunderground v.1.15,2013-04-05 06:57:00,
2013-04-05 01:59:00,28.7,24.8,30.20,NW,313,0.0,0.0,85,0.00,,,0.00,0,Wunderground v.1.15,2013-04-05 06:59:00,
2013-04-05 02:01:00,28.6,24.7,30.20,NW,312,0.0,0.0,85,0.00,,,0.00,0,Wunderground v.1.15,2013-04-05 07:01:00,
2013-04-05 02:02:00,28.6,24.7,30.20,NW,312,0.0,0.0,85,0.00,,,0.00,0,Wunderground v.1.15,2013-04-05 07:02:00,
2013-04-05 02:04:00,28.5,24.8,30.20,NW,312,0.0,0.0,86,0.00,,,0.00,0,Wunderground v.1.15,2013-04-05 07:04:00,
2013-04-05 02:05:00,28.4,24.7,30.20,NW,312,0.0,0.0,86,0.00,,,0.00,0,Wunderground v.1.15,2013-04-05 07:05:00,
2013-04-05 02:08:00,28.1,24.5,30.20,NW,312,0.0,0.0,86,0.00,,,0.00,0,Wunderground v.1.15,2013-04-05 07:08:00,
2013-04-05 02:10:00,28.0,24.4,30.20,NW,312,0.0,0.0,86,0.00,,,0.00,0,Wunderground v.1.15,2013-04-05 07:10:00,
2013-04-05 02:12:00,27.9,24.3,30.20,NW,312,0.0,0.0,86,0.00,,,0.00,0,Wunderground v.1.15,2013-04-05 07:12:00,
2013-04-05 02:14:00,27.9,24.3,30.20,NW,312,0.0,0.0,86,0.00,,,0.00,0,Wunderground v.1.15,2013-04-05 07:14:00,
2013-04-05 02:16:00,27.7,24.3,30.20,NW,312,0.0,1.0,87,0.00,,,0.00,0,Wunderground v.1.15,2013-04-05 07:16:00,
2013-04-05 02:19:00,27.5,24.1,30.20,NW,312,0.0,1.0,87,0.00,,,0.00,0,Wunderground v.1.15,2013-04-05 07:19:00,
2013-04-05 02:21:00,27.2,23.8,30.20,NW,312,0.0,0.0,87,0.00,,,0.00,0,Wunderground v.1.15,2013-04-05 07:21:00,
2013-04-05 02:22:00,27.1,23.7,30.20,NW,312,0.0,0.0,87,0.00,,,0.00,0,Wunderground v.1.15,2013-04-05 07:22:00,
2013-04-05 02:24:00,27.0,23.9,30.20,NW,312,0.0,0.0,88,0.00,,,0.00,0,Wunderground v.1.15,2013-04-05 07:24:00,
2013-04-05 02:25:00,26.9,23.8,30.20,NW,312,0.0,0.0,88,0.00,,,0.00,0,Wunderground v.1.15,2013-04-05 07:25:00,
2013-04-05 02:30:00,26.9,23.8,30.20,NW,312,0.0,0.0,88,0.00,,,0.00,0,Wunderground v.1.15,2013-04-05 07:30:00,
2013-04-05 02:31:00,26.9,23.8,30.20,NW,312,0.0,0.0,88,0.00,,,0.00,0,Wunderground v.1.15,2013-04-05 07:31:00,
2013-04-05 02:35:00,26.7,23.9,30.20,NW,312,0.0,0.0,89,0.00,,,0.00,0,Wunderground v.1.15,2013-04-05 07:35:00,
2013-04-05 02:36:00,26.8,24.0,30.20,NW,312,0.0,0.0,89,0.00,,,0.00,0,Wunderground v.1.15,2013-04-05 07:36:00,
2013-04-05 02:37:00,26.9,24.1,30.20,NW,312,0.0,0.0,89,0.00,,,0.00,0,Wunderground v.1.15,2013-04-05 07:37:00,
2013-04-05 02:40:00,27.0,24.2,30.20,NW,312,0.0,0.0,89,0.00,,,0.00,0,Wunderground v.1.15,2013-04-05 07:40:00,
2013-04-05 02:41:00,27.0,24.2,30.20,NW,312,0.0,0.0,89,0.00,,,0.00,0,Wunderground v.1.15,2013-04-05 07:41:00,
2013-04-05 02:42:00,27.0,24.2,30.20,NW,312,0.0,0.0,89,0.00,,,0.00,0,Wunderground v.1.15,2013-04-05 07:42:00,
2013-04-05 02:44:00,27.0,24.2,30.20,NW,312,0.0,0.0,89,0.00,,,0.00,0,Wunderground v.1.15,2013-04-05 07:44:00,
2013-04-05 02:47:00,27.1,24.3,30.20,NW,312,0.0,0.0,89,0.00,,,0.00,0,Wunderground v.1.15,2013-04-05 07:47:00,
2013-04-05 02:48:00,27.3,24.8,30.20,NW,312,0.0,0.0,90,0.00,,,0.00,0,Wunderground v.1.15,2013-04-05 07:48:00,
2013-04-05 02:49:00,27.3,24.8,30.21,NW,312,0.0,0.0,90,0.00,,,0.00,0,Wunderground v.1.15,2013-04-05 07:49:00,
2013-04-05 02:54:00,27.4,24.6,30.20,NW,312,0.0,0.0,89,0.00,,,0.00,0,Wunderground v.1.15,2013-04-05 07:54:00,
2013-04-05 02:59:00,27.3,24.5,30.21,NW,312,0.0,0.0,89,0.00,,,0.00,0,Wunderground v.1.15,2013-04-05 07:59:00,
2013-04-05 03:00:00,27.3,24.5,30.21,NW,312,0.0,0.0,89,0.00,,,0.00,0,Wunderground v.1.15,2013-04-05 08:00:00,
2013-04-05 03:01:00,27.2,24.4,30.21,NW,312,0.0,0.0,89,0.00,,,0.00,0,Wunderground v.1.15,2013-04-05 08:01:00,
2013-04-05 03:02:00,27.1,24.3,30.21,NW,312,0.0,0.0,89,0.00,,,0.00,0,Wunderground v.1.15,2013-04-05 08:02:00,
2013-04-05 03:07:00,26.8,24.0,30.21,NW,312,0.0,0.0,89,0.00,,,0.00,0,Wunderground v.1.15,2013-04-05 08:07:00,
2013-04-05 03:09:00,26.6,23.8,30.21,NW,313,0.0,0.0,89,0.00,,,0.00,0,Wunderground v.1.15,2013-04-05 08:09:00,
2013-04-05 03:10:00,26.5,23.7,30.21,NW,312,0.0,0.0,89,0.00,,,0.00,0,Wunderground v.1.15,2013-04-05 08:10:00,
2013-04-05 03:11:00,26.4,23.6,30.21,NW,312,0.0,0.0,89,0.00,,,0.00,0,Wunderground v.1.15,2013-04-05 08:11:00,
2013-04-05 03:14:00,26.3,23.5,30.21,NW,312,0.0,0.0,89,0.00,,,0.00,0,Wunderground v.1.15,2013-04-05 08:14:00,
2013-04-05 03:16:00,26.2,23.4,30.21,NW,312,0.0,0.0,89,0.00,,,0.00,0,Wunderground v.1.15,2013-04-05 08:16:00,
2013-04-05 03:17:00,26.2,23.4,30.21,NW,312,0.0,0.0,89,0.00,,,0.00,0,Wunderground v.1.15,2013-04-05 08:17:00,
2013-04-05 03:19:00,26.1,23.3,30.21,NW,313,0.0,0.0,89,0.00,,,0.00,0,Wunderground v.1.15,2013-04-05 08:19:00,
2013-04-05 03:20:00,26.1,23.3,30.21,NW,312,0.0,0.0,89,0.00,,,0.00,0,Wunderground v.1.15,2013-04-05 08:20:00,
2013-04-05 03:22:00,26.1,23.6,30.22,NW,312,0.0,0.0,90,0.00,,,0.00,0,Wunderground v.1.15,2013-04-05 08:22:00,
2013-04-05 03:24:00,26.1,23.6,30.22,NW,312,0.0,0.0,90,0.00,,,0.00,0,Wunderground v.1.15,2013-04-05 08:24:00,
2013-04-05 03:25:00,26.1,23.6,30.22,NW,312,0.0,0.0,90,0.00,,,0.00,0,Wunderground v.1.15,2013-04-05 08:25:00,
2013-04-05 03:30:00,26.1,23.6,30.22,NW,312,0.0,0.0,90,0.00,,,0.00,0,Wunderground v.1.15,2013-04-05 08:30:00,
2013-04-05 03:32:00,26.1,23.6,30.22,NW,312,0.0,0.0,90,0.00,,,0.00,0,Wunderground v.1.15,2013-04-05 08:32:00,
2013-04-05 03:33:00,26.1,23.6,30.22,NW,312,0.0,0.0,90,0.00,,,0.00,0,Wunderground v.1.15,2013-04-05 08:33:00,
2013-04-05 03:39:00,26.1,23.6,30.22,NW,313,0.0,0.0,90,0.00,,,0.00,0,Wunderground v.1.15,2013-04-05 08:39:00,
2013-04-05 03:41:00,26.1,23.6,30.22,NW,312,0.0,0.0,90,0.00,,,0.00,0,Wunderground v.1.15,2013-04-05 08:41:00,
2013-04-05 03:43:00,26.1,23.6,30.22,NW,312,0.0,0.0,90,0.00,,,0.00,0,Wunderground v.1.15,2013-04-05 08:43:00,
2013-04-05 03:44:00,26.0,23.5,30.22,NW,313,0.0,0.0,90,0.00,,,0.00,0,Wunderground v.1.15,2013-04-05 08:44:00,
2013-04-05 03:45:00,26.0,23.5,30.22,NW,312,0.0,0.0,90,0.00,,,0.00,0,Wunderground v.1.15,2013-04-05 08:45:00,
2013-04-05 03:47:00,26.0,23.5,30.22,NW,312,0.0,0.0,90,0.00,,,0.00,0,Wunderground v.1.15,2013-04-05 08:47:00,
2013-04-05 03:51:00,25.8,23.3,30.22,NW,312,0.0,0.0,90,0.00,,,0.00,0,Wunderground v.1.15,2013-04-05 08:51:00,
2013-04-05 03:52:00,25.7,23.2,30.22,NW,312,0.0,0.0,90,0.00,,,0.00,0,Wunderground v.1.15,2013-04-05 08:52:00,
2013-04-05 03:55:00,25.6,23.1,30.22,NW,312,0.0,0.0,90,0.00,,,0.00,0,Wunderground v.1.15,2013-04-05 08:55:00,
2013-04-05 03:57:00,25.6,23.1,30.23,NW,312,0.0,0.0,90,0.00,,,0.00,0,Wunderground v.1.15,2013-04-05 08:57:00,
2013-04-05 03:58:00,25.6,23.1,30.22,NW,312,0.0,0.0,90,0.00,,,0.00,0,Wunderground v.1.15,2013-04-05 08:58:00,
2013-04-05 04:00:00,25.7,23.2,30.22,NW,313,0.0,0.0,90,0.00,,,0.00,0,Wunderground v.1.15,2013-04-05 09:00:00,
2013-04-05 04:01:00,25.7,23.2,30.23,NW,312,0.0,0.0,90,0.00,,,0.00,0,Wunderground v.1.15,2013-04-05 09:01:00,
2013-04-05 04:03:00,25.8,23.3,30.23,NW,312,0.0,0.0,90,0.00,,,0.00,0,Wunderground v.1.15,2013-04-05 09:03:00,
2013-04-05 04:06:00,25.6,23.1,30.23,NW,313,0.0,0.0,90,0.00,,,0.00,0,Wunderground v.1.15,2013-04-05 09:06:00,
2013-04-05 04:10:00,25.5,23.0,30.23,NW,312,0.0,0.0,90,0.00,,,0.00,0,Wunderground v.1.15,2013-04-05 09:10:00,
2013-04-05 04:12:00,25.5,23.0,30.23,NW,312,0.0,0.0,90,0.00,,,0.00,0,Wunderground v.1.15,2013-04-05 09:12:00,
2013-04-05 04:15:00,25.4,22.9,30.23,NW,313,0.0,0.0,90,0.00,,,0.00,0,Wunderground v.1.15,2013-04-05 09:15:00,
2013-04-05 04:17:00,25.3,22.8,30.23,NW,312,0.0,0.0,90,0.00,,,0.00,0,Wunderground v.1.15,2013-04-05 09:17:00,
2013-04-05 04:19:00,25.3,22.8,30.23,NW,312,0.0,0.0,90,0.00,,,0.00,0,Wunderground v.1.15,2013-04-05 09:19:00,
2013-04-05 04:21:00,25.3,22.8,30.23,NW,312,0.0,0.0,90,0.00,,,0.00,0,Wunderground v.1.15,2013-04-05 09:21:00,
2013-04-05 04:24:00,25.2,22.7,30.23,NW,312,0.0,0.0,90,0.00,,,0.00,0,Wunderground v.1.15,2013-04-05 09:24:00,
2013-04-05 04:26:00,25.2,22.7,30.24,NW,312,0.0,0.0,90,0.00,,,0.00,0,Wunderground v.1.15,2013-04-05 09:26:00,
2013-04-05 04:29:00,25.2,22.7,30.24,NW,313,0.0,0.0,90,0.00,,,0.00,0,Wunderground v.1.15,2013-04-05 09:29:00,
2013-04-05 04:31:00,25.1,22.6,30.24,NW,313,0.0,0.0,90,0.00,,,0.00,0,Wunderground v.1.15,2013-04-05 09:31:00,
2013-04-05 04:33:00,25.1,22.6,30.24,NW,312,0.0,0.0,90,0.00,,,0.00,0,Wunderground v.1.15,2013-04-05 09:33:00,
2013-04-05 04:35:00,25.1,22.6,30.24,NW,312,0.0,0.0,90,0.00,,,0.00,0,Wunderground v.1.15,2013-04-05 09:35:00,
2013-04-05 04:39:00,25.1,22.6,30.24,NW,312,0.0,0.0,90,0.00,,,0.00,0,Wunderground v.1.15,2013-04-05 09:39:00,
2013-04-05 04:40:00,25.1,22.6,30.24,NW,312,0.0,0.0,90,0.00,,,0.00,0,Wunderground v.1.15,2013-04-05 09:40:00,
2013-04-05 04:41:00,25.1,22.6,30.24,NW,312,0.0,0.0,90,0.00,,,0.00,0,Wunderground v.1.15,2013-04-05 09:41:00,
2013-04-05 04:44:00,24.9,22.4,30.24,NW,312,0.0,0.0,90,0.00,,,0.00,0,Wunderground v.1.15,2013-04-05 09:44:00,
2013-04-05 04:45:00,24.8,22.3,30.24,NW,312,0.0,0.0,90,0.00,,,0.00,0,Wunderground v.1.15,2013-04-05 09:45:00,
2013-04-05 04:46:00,24.7,22.2,30.24,NW,312,0.0,0.0,90,0.00,,,0.00,0,Wunderground v.1.15,2013-04-05 09:46:00,
2013-04-05 04:47:00,24.7,22.2,30.24,NW,312,0.0,0.0,90,0.00,,,0.00,0,Wunderground v.1.15,2013-04-05 09:47:00,
2013-04-05 04:51:00,24.6,22.1,30.24,NW,313,0.0,0.0,90,0.00,,,0.00,0,Wunderground v.1.15,2013-04-05 09:51:00,
2013-04-05 04:52:00,24.6,22.1,30.24,NW,313,0.0,0.0,90,0.00,,,0.00,0,Wunderground v.1.15,2013-04-05 09:52:00,
2013-04-05 04:53:00,24.5,22.0,30.24,NW,312,0.0,0.0,90,0.00,,,0.00,0,Wunderground v.1.15,2013-04-05 09:53:00,
2013-04-05 04:54:00,24.5,22.0,30.24,NW,312,0.0,0.0,90,0.00,,,0.00,0,Wunderground v.1.15,2013-04-05 09:54:00,
2013-04-05 05:00:00,24.7,22.4,30.25,NW,312,0.0,0.0,91,0.00,,,0.00,0,Wunderground v.1.15,2013-04-05 10:00:00,
2013-04-05 05:01:00,24.7,22.4,30.25,NW,312,0.0,0.0,91,0.00,,,0.00,0,Wunderground v.1.15,2013-04-05 10:01:00,
2013-04-05 05:02:00,24.7,22.4,30.25,NW,312,0.0,0.0,91,0.00,,,0.00,0,Wunderground v.1.15,2013-04-05 10:02:00,
2013-04-05 05:04:00,24.7,22.2,30.25,NW,312,0.0,0.0,90,0.00,,,0.00,0,Wunderground v.1.15,2013-04-05 10:04:00,
2013-04-05 05:07:00,24.7,22.4,30.25,NW,313,0.0,0.0,91,0.00,,,0.00,0,Wunderground v.1.15,2013-04-05 10:07:00,
2013-04-05 05:09:00,24.6,22.3,30.25,NW,312,0.0,0.0,91,0.00,,,0.00,0,Wunderground v.1.15,2013-04-05 10:09:00,
2013-04-05 05:10:00,24.6,22.1,30.25,NW,312,0.0,0.0,90,0.00,,,0.00,0,Wunderground v.1.15,2013-04-05 10:10:00,
2013-04-05 05:13:00,24.5,22.0,30.25,NW,313,0.0,0.0,90,0.00,,,0.00,0,Wunderground v.1.15,2013-04-05 10:13:00,
2013-04-05 05:14:00,24.5,22.0,30.25,NW,312,0.0,0.0,90,0.00,,,0.00,0,Wunderground v.1.15,2013-04-05 10:14:00,
2013-04-05 05:15:00,24.5,22.0,30.25,NW,312,0.0,0.0,90,0.00,,,0.00,0,Wunderground v.1.15,2013-04-05 10:15:00,
2013-04-05 05:20:00,24.4,21.9,30.26,NW,313,0.0,0.0,90,0.00,,,0.00,0,Wunderground v.1.15,2013-04-05 10:20:00,
2013-04-05 05:24:00,24.3,21.8,30.26,NW,312,0.0,0.0,90,0.00,,,0.00,0,Wunderground v.1.15,2013-04-05 10:24:00,
2013-04-05 05:25:00,24.3,21.8,30.26,NW,312,0.0,0.0,90,0.00,,,0.00,0,Wunderground v.1.15,2013-04-05 10:25:00,
2013-04-05 05:27:00,24.2,21.7,30.26,NW,313,0.0,0.0,90,0.00,,,0.00,0,Wunderground v.1.15,2013-04-05 10:27:00,
2013-04-05 05:29:00,24.2,21.7,30.26,NW,312,0.0,0.0,90,0.00,,,0.00,0,Wunderground v.1.15,2013-04-05 10:29:00,
2013-04-05 05:30:00,24.3,21.8,30.26,NW,312,0.0,0.0,90,0.00,,,0.00,0,Wunderground v.1.15,2013-04-05 10:30:00,
2013-04-05 05:33:00,24.3,22.1,30.26,NW,312,0.0,0.0,91,0.00,,,0.00,0,Wunderground v.1.15,2013-04-05 10:33:00,
2013-04-05 05:35:00,24.3,22.1,30.26,NW,313,0.0,0.0,91,0.00,,,0.00,0,Wunderground v.1.15,2013-04-05 10:35:00,
2013-04-05 05:36:00,24.3,22.1,30.26,NW,312,0.0,0.0,91,0.00,,,0.00,0,Wunderground v.1.15,2013-04-05 10:36:00,
2013-04-05 05:40:00,24.0,21.5,30.26,NW,312,0.0,0.0,90,0.00,,,0.00,0,Wunderground v.1.15,2013-04-05 10:40:00,
2013-04-05 05:41:00,23.9,21.4,30.26,NW,312,0.0,0.0,90,0.00,,,0.00,0,Wunderground v.1.15,2013-04-05 10:41:00,
2013-04-05 05:44:00,23.7,21.2,30.26,NW,313,0.0,0.0,90,0.00,,,0.00,0,Wunderground v.1.15,2013-04-05 10:44:00,
2013-04-05 05:45:00,23.8,21.6,30.26,NW,312,0.0,0.0,91,0.00,,,0.00,0,Wunderground v.1.15,2013-04-05 10:45:00,
2013-04-05 05:50:00,23.8,21.6,30.27,NW,313,0.0,0.0,91,0.00,,,0.00,0,Wunderground v.1.15,2013-04-05 10:50:00,
2013-04-05 05:51:00,23.8,21.6,30.27,NW,312,0.0,0.0,91,0.00,,,0.00,0,Wunderground v.1.15,2013-04-05 10:51:00,
2013-04-05 05:52:00,23.8,21.6,30.27,NW,313,0.0,0.0,91,0.00,,,0.00,0,Wunderground v.1.15,2013-04-05 10:52:00,
2013-04-05 05:57:00,23.9,21.7,30.27,NW,312,0.0,0.0,91,0.00,,,0.00,0,Wunderground v.1.15,2013-04-05 10:57:00,
2013-04-05 05:59:00,23.9,21.7,30.27,NW,312,0.0,0.0,91,0.00,,,0.00,0,Wunderground v.1.15,2013-04-05 10:59:00,
2013-04-05 06:01:00,23.8,21.6,30.27,NW,312,0.0,0.0,91,0.00,,,0.00,0,Wunderground v.1.15,2013-04-05 11:01:00,
2013-04-05 06:04:00,23.8,21.6,30.27,NW,312,0.0,0.0,91,0.00,,,0.00,0,Wunderground v.1.15,2013-04-05 11:04:00,
2013-04-05 06:06:00,23.8,21.6,30.27,NW,313,0.0,0.0,91,0.00,,,0.00,0,Wunderground v.1.15,2013-04-05 11:06:00,
2013-04-05 06:11:00,23.8,21.6,30.27,NW,312,0.0,0.0,91,0.00,,,0.00,0,Wunderground v.1.15,2013-04-05 11:11:00,
2013-04-05 06:12:00,23.8,21.6,30.27,NW,312,0.0,0.0,91,0.00,,,0.00,0,Wunderground v.1.15,2013-04-05 11:12:00,
2013-04-05 06:14:00,23.8,21.6,30.27,NW,312,0.0,0.0,91,0.00,,,0.00,0,Wunderground v.1.15,2013-04-05 11:14:00,
2013-04-05 06:15:00,23.8,21.6,30.27,NW,312,0.0,0.0,91,0.00,,,0.00,0,Wunderground v.1.15,2013-04-05 11:15:00,
2013-04-05 06:17:00,23.9,21.7,30.27,NW,312,0.0,0.0,91,0.00,,,0.00,0,Wunderground v.1.15,2013-04-05 11:17:00,
2013-04-05 06:19:00,23.9,21.7,30.27,NW,312,0.0,0.0,91,0.00,,,0.00,0,Wunderground v.1.15,2013-04-05 11:19:00,
2013-04-05 06:21:00,23.8,21.6,30.27,NW,312,0.0,0.0,91,0.00,,,0.00,0,Wunderground v.1.15,2013-04-05 11:21:00,
2013-04-05 06:24:00,23.7,21.5,30.27,NW,312,0.0,0.0,91,0.00,,,0.00,0,Wunderground v.1.15,2013-04-05 11:24:00,
2013-04-05 06:25:00,23.7,21.5,30.28,NW,312,0.0,0.0,91,0.00,,,0.00,0,Wunderground v.1.15,2013-04-05 11:25:00,
2013-04-05 06:27:00,23.7,21.5,30.28,NW,312,0.0,0.0,91,0.00,,,0.00,0,Wunderground v.1.15,2013-04-05 11:27:00,
2013-04-05 06:30:00,23.6,21.4,30.28,NW,312,0.0,0.0,91,0.00,,,0.00,0,Wunderground v.1.15,2013-04-05 11:30:00,
2013-04-05 06:31:00,23.6,21.4,30.28,NW,312,0.0,0.0,91,0.00,,,0.00,0,Wunderground v.1.15,2013-04-05 11:31:00,
2013-04-05 06:33:00,23.6,21.4,30.28,NW,312,0.0,0.0,91,0.00,,,0.00,0,Wunderground v.1.15,2013-04-05 11:33:00,
2013-04-05 06:35:00,23.6,21.4,30.28,NW,313,0.0,0.0,91,0.00,,,0.00,0,Wunderground v.1.15,2013-04-05 11:35:00,
2013-04-05 06:36:00,23.5,21.3,30.28,NW,312,0.0,0.0,91,0.00,,,0.00,5,Wunderground v.1.15,2013-04-05 11:36:00,
2013-04-05 06:39:00,23.6,21.4,30.28,NW,312,0.0,0.0,91,0.00,,,0.00,5,Wunderground v.1.15,2013-04-05 11:39:00,
2013-04-05 06:44:00,23.3,21.1,30.29,NW,312,0.0,0.0,91,0.00,,,0.00,9,Wunderground v.1.15,2013-04-05 11:44:00,
2013-04-05 06:45:00,23.3,21.1,30.29,NW,312,0.0,0.0,91,0.00,,,0.00,9,Wunderground v.1.15,2013-04-05 11:45:00,
2013-04-05 06:46:00,23.3,21.1,30.29,NW,312,0.0,0.0,91,0.00,,,0.00,11,Wunderground v.1.15,2013-04-05 11:46:00,
2013-04-05 06:51:00,23.0,20.8,30.29,NW,312,0.0,0.0,91,0.00,,,0.00,14,Wunderground v.1.15,2013-04-05 11:51:00,
2013-04-05 06:52:00,23.0,20.8,30.29,NW,312,0.0,0.0,91,0.00,,,0.00,14,Wunderground v.1.15,2013-04-05 11:52:00,
2013-04-05 06:54:00,23.0,20.8,30.29,NW,312,0.0,0.0,91,0.00,,,0.00,14,Wunderground v.1.15,2013-04-05 11:54:00,
2013-04-05 06:56:00,23.0,20.8,30.29,NW,312,0.0,0.0,91,0.00,,,0.00,19,Wunderground v.1.15,2013-04-05 11:56:00,
2013-04-05 06:59:00,23.1,20.9,30.29,NW,312,0.0,0.0,91,0.00,,,0.00,25,Wunderground v.1.15,2013-04-05 11:59:00,
2013-04-05 07:01:00,23.4,21.2,30.29,NW,312,0.0,0.0,91,0.00,,,0.00,30,Wunderground v.1.15,2013-04-05 12:01:00,
2013-04-05 07:04:00,23.5,21.3,30.29,NW,312,0.0,0.0,91,0.00,,,0.00,39,Wunderground v.1.15,2013-04-05 12:04:00,
2013-04-05 07:05:00,23.6,21.4,30.29,NW,313,0.0,0.0,91,0.00,,,0.00,40,Wunderground v.1.15,2013-04-05 12:05:00,
2013-04-05 07:07:00,23.8,21.8,30.30,NW,312,0.0,0.0,92,0.00,,,0.00,44,Wunderground v.1.15,2013-04-05 12:07:00,
2013-04-05 07:09:00,23.9,21.9,30.30,NW,313,0.0,0.0,92,0.00,,,0.00,51,Wunderground v.1.15,2013-04-05 12:09:00,
2013-04-05 07:11:00,23.8,21.6,30.30,NW,313,0.0,0.0,91,0.00,,,0.00,54,Wunderground v.1.15,2013-04-05 12:11:00,
2013-04-05 07:14:00,23.6,21.4,30.30,NW,313,0.0,0.0,91,0.00,,,0.00,62,Wunderground v.1.15,2013-04-05 12:14:00,
2013-04-05 07:16:00,23.6,21.4,30.30,NW,313,0.0,0.0,91,0.00,,,0.00,70,Wunderground v.1.15,2013-04-05 12:16:00,
2013-04-05 07:17:00,23.6,21.4,30.30,NW,312,0.0,0.0,91,0.00,,,0.00,74,Wunderground v.1.15,2013-04-05 12:17:00,
2013-04-05 07:21:00,23.8,21.6,30.30,NW,312,0.0,0.0,91,0.00,,,0.00,88,Wunderground v.1.15,2013-04-05 12:21:00,
2013-04-05 07:22:00,23.8,21.6,30.30,NW,312,0.0,0.0,91,0.00,,,0.00,91,Wunderground v.1.15,2013-04-05 12:22:00,
2013-04-05 07:24:00,23.9,21.7,30.30,NW,312,0.0,0.0,91,0.00,,,0.00,95,Wunderground v.1.15,2013-04-05 12:24:00,
2013-04-05 07:29:00,24.4,22.4,30.30,NW,313,0.0,0.0,92,0.00,,,0.00,114,Wunderground v.1.15,2013-04-05 12:29:00,
2013-04-05 07:30:00,24.4,22.2,30.30,NW,313,0.0,0.0,91,0.00,,,0.00,120,Wunderground v.1.15,2013-04-05 12:30:00,
2013-04-05 07:34:00,24.8,22.8,30.30,NW,312,0.0,0.0,92,0.00,,,0.00,141,Wunderground v.1.15,2013-04-05 12:34:00,
2013-04-05 07:35:00,24.8,22.5,30.30,NW,313,0.0,0.0,91,0.00,,,0.00,139,Wunderground v.1.15,2013-04-05 12:35:00,
2013-04-05 07:36:00,24.9,22.6,30.30,NW,313,0.0,0.0,91,0.00,,,0.00,141,Wunderground v.1.15,2013-04-05 12:36:00,
2013-04-05 07:41:00,25.4,23.1,30.30,NW,313,0.0,0.0,91,0.00,,,0.00,148,Wunderground v.1.15,2013-04-05 12:41:00,
2013-04-05 07:43:00,25.6,23.3,30.30,NW,313,0.0,0.0,91,0.00,,,0.00,153,Wunderground v.1.15,2013-04-05 12:43:00,
2013-04-05 07:45:00,25.7,23.4,30.30,NW,313,0.0,0.0,91,0.00,,,0.00,156,Wunderground v.1.15,2013-04-05 12:45:00,
2013-04-05 07:49:00,25.9,23.4,30.30,NW,313,0.0,1.0,90,0.00,,,0.00,172,Wunderground v.1.15,2013-04-05 12:49:00,
2013-04-05 07:51:00,25.9,23.4,30.30,NW,313,0.0,0.0,90,0.00,,,0.00,178,Wunderground v.1.15,2013-04-05 12:51:00,
2013-04-05 07:54:00,26.0,23.5,30.30,NW,313,0.0,0.0,90,0.00,,,0.00,185,Wunderground v.1.15,2013-04-05 12:54:00,
2013-04-05 07:57:00,26.2,23.7,30.30,NW,313,0.0,0.0,90,0.00,,,0.00,197,Wunderground v.1.15,2013-04-05 12:57:00,
2013-04-05 07:59:00,26.4,23.9,30.30,NW,313,0.0,0.0,90,0.00,,,0.00,200,Wunderground v.1.15,2013-04-05 12:59:00,
2013-04-05 08:01:00,26.7,23.9,30.30,NW,313,0.0,0.0,89,0.00,,,0.00,209,Wunderground v.1.15,2013-04-05 13:01:00,
2013-04-05 08:02:00,26.8,24.0,30.31,NW,313,0.0,0.0,89,0.00,,,0.00,213,Wunderground v.1.15,2013-04-05 13:02:00,
2013-04-05 08:04:00,27.1,24.3,30.31,NW,313,0.0,0.0,89,0.00,,,0.00,214,Wunderground v.1.15,2013-04-05 13:04:00,
2013-04-05 08:06:00,27.4,24.6,30.30,NW,313,0.0,0.0,89,0.00,,,0.00,220,Wunderground v.1.15,2013-04-05 13:06:00,
2013-04-05 08:10:00,28.2,25.1,30.31,NW,313,0.0,0.0,88,0.00,,,0.00,236,Wunderground v.1.15,2013-04-05 13:10:00,
2013-04-05 08:12:00,28.3,25.2,30.31,NW,313,0.0,0.0,88,0.00,,,0.00,239,Wunderground v.1.15,2013-04-05 13:12:00,
2013-04-05 08:16:00,29.2,25.8,30.31,NW,313,0.0,0.0,87,0.00,,,0.00,257,Wunderground v.1.15,2013-04-05 13:16:00,
2013-04-05 08:17:00,29.3,25.6,30.31,NW,313,0.0,0.0,86,0.00,,,0.00,258,Wunderground v.1.15,2013-04-05 13:17:00,
2013-04-05 08:18:00,29.5,25.8,30.31,NW,313,0.0,0.0,86,0.00,,,0.00,265,Wunderground v.1.15,2013-04-05 13:18:00,
2013-04-05 08:19:00,29.6,25.6,30.31,NW,313,0.0,0.0,85,0.00,,,0.00,267,Wunderground v.1.15,2013-04-05 13:19:00,
2013-04-05 08:21:00,29.9,25.7,30.31,NW,313,0.0,0.0,84,0.00,,,0.00,272,Wunderground v.1.15,2013-04-05 13:21:00,
2013-04-05 08:22:00,30.1,25.6,30.31,NW,313,0.0,1.0,83,0.00,,,0.00,276,Wunderground v.1.15,2013-04-05 13:22:00,
2013-04-05 08:25:00,30.6,25.8,30.31,NW,313,0.0,1.0,82,0.00,,,0.00,290,Wunderground v.1.15,2013-04-05 13:25:00,
2013-04-05 08:27:00,30.8,25.7,30.31,NW,312,0.0,2.0,81,0.00,,,0.00,297,Wunderground v.1.15,2013-04-05 13:27:00,
2013-04-05 08:29:00,31.0,25.2,30.31,NW,312,1.0,2.0,79,0.00,,,0.00,304,Wunderground v.1.15,2013-04-05 13:29:00,
2013-04-05 08:30:00,31.1,25.0,30.31,NW,312,1.0,1.0,78,0.00,,,0.00,315,Wunderground v.1.15,2013-04-05 13:30:00,
2013-04-05 08:32:00,31.4,25.3,30.31,NW,312,1.0,2.0,78,0.00,,,0.00,323,Wunderground v.1.15,2013-04-05 13:32:00,
2013-04-05 08:35:00,31.8,25.1,30.31,NW,313,1.0,2.0,76,0.00,,,0.00,338,Wunderground v.1.15,2013-04-05 13:35:00,
2013-04-05 08:37:00,32.1,25.1,30.31,NW,313,1.0,2.0,75,0.00,,,0.00,343,Wunderground v.1.15,2013-04-05 13:37:00,
2013-04-05 08:38:00,32.2,25.2,30.31,NW,313,1.0,3.0,75,0.00,,,0.00,346,Wunderground v.1.15,2013-04-05 13:38:00,
2013-04-05 08:41:00,32.6,25.9,30.31,NW,312,1.0,1.0,76,0.00,,,0.00,353,Wunderground v.1.15,2013-04-05 13:41:00,
2013-04-05 08:42:00,32.9,25.5,30.31,NW,312,1.0,2.0,74,0.00,,,0.00,360,Wunderground v.1.15,2013-04-05 13:42:00,
2013-04-05 08:45:00,33.5,25.1,30.31,NW,313,1.0,2.0,71,0.00,,,0.00,367,Wunderground v.1.15,2013-04-05 13:45:00,
2013-04-05 08:47:00,33.9,25.1,30.31,NW,313,1.0,2.0,70,0.00,,,0.00,374,Wunderground v.1.15,2013-04-05 13:47:00,
2013-04-05 08:52:00,34.8,25.7,30.31,NW,313,0.0,1.0,69,0.00,,,0.00,390,Wunderground v.1.15,2013-04-05 13:52:00,
2013-04-05 08:54:00,34.8,25.3,30.31,NW,313,0.0,1.0,68,0.00,,,0.00,396,Wunderground v.1.15,2013-04-05 13:54:00,
2013-04-05 08:57:00,34.8,25.0,30.31,NW,313,0.0,2.0,67,0.00,,,0.00,408,Wunderground v.1.15,2013-04-05 13:57:00,
2013-04-05 08:59:00,35.0,24.4,30.31,NW,313,1.0,2.0,65,0.00,,,0.00,413,Wunderground v.1.15,2013-04-05 13:59:00,
2013-04-05 09:03:00,35.6,23.5,30.31,ENE,61,1.0,3.0,61,0.00,,,0.00,427,Wunderground v.1.15,2013-04-05 14:03:00,
2013-04-05 09:04:00,35.8,24.0,30.31,NW,307,1.0,4.0,62,0.00,,,0.00,431,Wunderground v.1.15,2013-04-05 14:04:00,
2013-04-05 09:05:00,35.8,23.7,30.31,NW,323,2.0,4.0,61,0.00,,,0.00,432,Wunderground v.1.15,2013-04-05 14:05:00,
2013-04-05 09:09:00,35.8,23.3,30.31,NNE,14,2.0,6.0,60,0.00,,,0.00,446,Wunderground v.1.15,2013-04-05 14:09:00,
2013-04-05 09:10:00,35.9,23.0,30.31,NNE,12,3.0,3.0,59,0.00,,,0.00,450,Wunderground v.1.15,2013-04-05 14:10:00,
2013-04-05 09:11:00,36.0,23.0,30.31,North,10,3.0,5.0,59,0.00,,,0.00,455,Wunderground v.1.15,2013-04-05 14:11:00,
2013-04-05 09:12:00,36.0,22.6,30.32,NE,51,3.0,5.0,58,0.00,,,0.00,457,Wunderground v.1.15,2013-04-05 14:12:00,
2013-04-05 09:15:00,36.2,22.8,30.32,North,360,3.0,5.0,58,0.00,,,0.00,478,Wunderground v.1.15,2013-04-05 14:15:00,
2013-04-05 09:16:00,36.4,22.6,30.32,North,360,3.0,5.0,57,0.00,,,0.00,468,Wunderground v.1.15,2013-04-05 14:16:00,
2013-04-05 09:20:00,36.9,22.7,30.32,ENE,69,3.0,3.0,56,0.00,,,0.00,480,Wunderground v.1.15,2013-04-05 14:20:00,
2013-04-05 09:22:00,36.8,22.6,30.32,NNE,24,3.0,4.0,56,0.00,,,0.00,485,Wunderground v.1.15,2013-04-05 14:22:00,
2013-04-05 09:24:00,36.8,23.0,30.32,NE,35,3.0,4.0,57,0.00,,,0.00,492,Wunderground v.1.15,2013-04-05 14:24:00,
2013-04-05 09:27:00,37.2,22.9,30.32,NE,40,4.0,7.0,56,0.00,,,0.00,503,Wunderground v.1.15,2013-04-05 14:27:00,
2013-04-05 09:29:00,37.2,22.5,30.32,NE,52,4.0,7.0,55,0.00,,,0.00,506,Wunderground v.1.15,2013-04-05 14:29:00,
2013-04-05 09:35:00,37.2,22.1,30.32,NNE,32,4.0,7.0,54,0.00,,,0.00,524,Wunderground v.1.15,2013-04-05 14:35:00,
2013-04-05 09:39:00,37.6,22.4,30.32,ENE,59,3.0,7.0,54,0.00,,,0.00,536,Wunderground v.1.15,2013-04-05 14:39:00,
2013-04-05 09:41:00,37.5,21.9,30.32,SSE,151,3.0,4.0,53,0.00,,,0.00,545,Wunderground v.1.15,2013-04-05 14:41:00,
2013-04-05 09:45:00,37.7,22.5,30.32,East,98,3.0,6.0,54,0.00,,,0.00,554,Wunderground v.1.15,2013-04-05 14:45:00,
2013-04-05 09:48:00,37.7,22.1,30.32,East,88,4.0,7.0,53,0.00,,,0.00,564,Wunderground v.1.15,2013-04-05 14:48:00,
2013-04-05 09:50:00,37.6,22.0,30.32,East,79,4.0,4.0,53,0.00,,,0.00,566,Wunderground v.1.15,2013-04-05 14:50:00,
2013-04-05 09:51:00,37.6,22.0,30.32,SSE,159,4.0,4.0,53,0.00,,,0.00,570,Wunderground v.1.15,2013-04-05 14:51:00,
2013-04-05 09:54:00,38.0,22.8,30.32,SSE,152,4.0,4.0,54,0.00,,,0.00,577,Wunderground v.1.15,2013-04-05 14:54:00,
2013-04-05 09:55:00,37.8,22.2,30.32,SE,137,3.0,4.0,53,0.00,,,0.00,582,Wunderground v.1.15,2013-04-05 14:55:00,
2013-04-05 09:56:00,38.0,22.4,30.32,ENE,59,3.0,8.0,53,0.00,,,0.00,584,Wunderground v.1.15,2013-04-05 14:56:00,
2013-04-05 09:59:00,38.0,21.5,30.32,NE,40,3.0,8.0,51,0.00,,,0.00,591,Wunderground v.1.15,2013-04-05 14:59:00,
2013-04-05 10:01:00,38.2,21.6,30.32,NNE,16,3.0,5.0,51,0.00,,,0.00,598,Wunderground v.1.15,2013-04-05 15:01:00,
2013-04-05 10:04:00,38.3,21.3,30.32,ESE,104,4.0,5.0,50,0.00,,,0.00,606,Wunderground v.1.15,2013-04-05 15:04:00,
2013-04-05 10:06:00,39.1,22.9,30.32,ENE,61,4.0,5.0,52,0.00,,,0.00,612,Wunderground v.1.15,2013-04-05 15:06:00,
2013-04-05 10:07:00,39.1,22.0,30.32,ENE,78,3.0,5.0,50,0.00,,,0.00,613,Wunderground v.1.15,2013-04-05 15:07:00,
2013-04-05 10:11:00,38.9,21.8,30.32,East,93,3.0,3.0,50,0.00,,,0.00,624,Wunderground v.1.15,2013-04-05 15:11:00,
2013-04-05 10:12:00,39.0,21.9,30.32,SE,144,2.0,3.0,50,0.00,,,0.00,626,Wunderground v.1.15,2013-04-05 15:12:00,
2013-04-05 10:14:00,39.5,22.4,30.32,ENE,65,2.0,4.0,50,0.00,,,0.00,633,Wunderground v.1.15,2013-04-05 15:14:00,
2013-04-05 10:15:00,39.2,21.1,30.32,ENE,72,3.0,4.0,48,0.00,,,0.00,633,Wunderground v.1.15,2013-04-05 15:15:00,
2013-04-05 10:17:00,38.9,21.3,30.31,ENE,59,2.0,4.0,49,0.00,,,0.00,640,Wunderground v.1.15,2013-04-05 15:17:00,
2013-04-05 10:19:00,39.3,22.2,30.31,ENE,76,2.0,5.0,50,0.00,,,0.00,642,Wunderground v.1.15,2013-04-05 15:19:00,
2013-04-05 10:22:00,39.7,21.6,30.31,SE,132,3.0,5.0,48,0.00,,,0.00,652,Wunderground v.1.15,2013-04-05 15:22:00,
2013-04-05 10:25:00,39.5,21.4,30.31,ENE,69,3.0,5.0,48,0.00,,,0.00,659,Wunderground v.1.15,2013-04-05 15:25:00,
2013-04-05 10:27:00,39.5,20.4,30.31,NE,55,4.0,8.0,46,0.00,,,0.00,666,Wunderground v.1.15,2013-04-05 15:27:00,
2013-04-05 10:29:00,39.5,20.9,30.31,East,98,4.0,8.0,47,0.00,,,0.00,666,Wunderground v.1.15,2013-04-05 15:29:00,
2013-04-05 10:31:00,39.5,20.4,30.31,ENE,69,5.0,5.0,46,0.00,,,0.00,673,Wunderground v.1.15,2013-04-05 15:31:00,
2013-04-05 10:32:00,39.6,21.5,30.31,East,94,5.0,5.0,48,0.00,,,0.00,675,Wunderground v.1.15,2013-04-05 15:32:00,
2013-04-05 10:34:00,39.5,20.4,30.31,NNE,19,5.0,5.0,46,0.00,,,0.00,680,Wunderground v.1.15,2013-04-05 15:34:00,
2013-04-05 10:39:00,39.5,20.9,30.31,NNE,30,5.0,10.0,47,0.00,,,0.00,689,Wunderground v.1.15,2013-04-05 15:39:00,
2013-04-05 10:41:00,39.3,19.7,30.31,NNE,23,6.0,6.0,45,0.00,,,0.00,694,Wunderground v.1.15,2013-04-05 15:41:00,
2013-04-05 10:44:00,39.3,20.2,30.31,NE,48,7.0,8.0,46,0.00,,,0.00,698,Wunderground v.1.15,2013-04-05 15:44:00,
2013-04-05 10:46:00,39.4,19.8,30.31,ENE,71,7.0,8.0,45,0.00,,,0.00,703,Wunderground v.1.15,2013-04-05 15:46:00,
2013-04-05 10:48:00,39.4,19.3,30.31,NNE,29,6.0,8.0,44,0.00,,,0.00,707,Wunderground v.1.15,2013-04-05 15:48:00,
2013-04-05 10:49:00,39.4,19.8,30.31,ENE,57,6.0,8.0,45,0.00,,,0.00,708,Wunderground v.1.15,2013-04-05 15:49:00,
2013-04-05 10:51:00,39.8,21.7,30.31,East,92,5.0,6.0,48,0.00,,,0.00,714,Wunderground v.1.15,2013-04-05 15:51:00,
2013-04-05 10:52:00,40.1,21.0,30.31,NNE,17,5.0,6.0,46,0.00,,,0.00,717,Wunderground v.1.15,2013-04-05 15:52:00,
2013-04-05 10:55:00,40.1,21.0,30.31,NNE,31,5.0,6.0,46,0.00,,,0.00,719,Wunderground v.1.15,2013-04-05 15:55:00,
2013-04-05 10:58:00,40.8,21.6,30.30,NNE,26,4.0,7.0,46,0.00,,,0.00,728,Wunderground v.1.15,2013-04-05 15:58:00,
2013-04-05 10:59:00,40.9,21.7,30.30,NE,42,4.0,7.0,46,0.00,,,0.00,729,Wunderground v.1.15,2013-04-05 15:59:00,
2013-04-05 11:00:00,40.8,21.6,30.30,ENE,65,4.0,4.0,46,0.00,,,0.00,735,Wunderground v.1.15,2013-04-05 16:00:00,
2013-04-05 11:03:00,40.8,21.6,30.30,ENE,67,4.0,5.0,46,0.00,,,0.00,740,Wunderground v.1.15,2013-04-05 16:03:00,
2013-04-05 11:04:00,40.9,21.7,30.30,East,96,4.0,5.0,46,0.00,,,0.00,738,Wunderground v.1.15,2013-04-05 16:04:00,
2013-04-05 11:09:00,40.8,20.5,30.30,ESE,105,3.0,6.0,44,0.00,,,0.00,756,Wunderground v.1.15,2013-04-05 16:09:00,
2013-04-05 11:12:00,40.9,20.6,30.30,SE,128,4.0,8.0,44,0.00,,,0.00,758,Wunderground v.1.15,2013-04-05 16:12:00,
2013-04-05 11:14:00,40.7,20.5,30.30,ENE,67,4.0,8.0,44,0.00,,,0.00,759,Wunderground v.1.15,2013-04-05 16:14:00,
2013-04-05 11:16:00,40.9,20.6,30.30,NE,46,5.0,8.0,44,0.00,,,0.00,768,Wunderground v.1.15,2013-04-05 16:16:00,
2013-04-05 11:18:00,40.9,20.6,30.30,NNE,23,5.0,10.0,44,0.00,,,0.00,715,Wunderground v.1.15,2013-04-05 16:18:00,
2013-04-05 11:21:00,40.6,20.4,30.31,NE,55,6.0,6.0,44,0.00,,,0.00,759,Wunderground v.1.15,2013-04-05 16:21:00,
2013-04-05 11:22:00,40.4,19.6,30.30,NE,47,6.0,6.0,43,0.00,,,0.00,773,Wunderground v.1.15,2013-04-05 16:22:00,
2013-04-05 11:25:00,40.6,20.4,30.30,NE,43,5.0,6.0,44,0.00,,,0.00,784,Wunderground v.1.15,2013-04-05 16:25:00,
2013-04-05 11:27:00,40.7,19.9,30.30,NE,46,6.0,10.0,43,0.00,,,0.00,795,Wunderground v.1.15,2013-04-05 16:27:00,
2013-04-05 11:29:00,40.7,20.5,30.30,ENE,67,5.0,10.0,44,0.00,,,0.00,796,Wunderground v.1.15,2013-04-05 16:29:00,
2013-04-05 11:32:00,40.8,20.5,30.30,NNW,348,5.0,5.0,44,0.00,,,0.00,796,Wunderground v.1.15,2013-04-05 16:32:00,
2013-04-05 11:33:00,40.7,19.4,30.30,North,355,5.0,5.0,42,0.00,,,0.00,786,Wunderground v.1.15,2013-04-05 16:33:00,
2013-04-05 11:37:00,41.3,21.0,30.30,North,355,5.0,8.0,44,0.00,,,0.00,775,Wunderground v.1.15,2013-04-05 16:37:00,
2013-04-05 11:40:00,42.0,22.2,30.30,East,80,4.0,4.0,45,0.00,,,0.00,786,Wunderground v.1.15,2013-04-05 16:40:00,
2013-04-05 11:41:00,42.4,22.5,30.30,East,81,4.0,4.0,45,0.00,,,0.00,807,Wunderground v.1.15,2013-04-05 16:41:00,
2013-04-05 11:43:00,42.7,22.3,30.30,East,93,4.0,4.0,44,0.00,,,0.00,833,Wunderground v.1.15,2013-04-05 16:43:00,
2013-04-05 11:44:00,42.8,22.4,30.29,ESE,117,4.0,6.0,44,0.00,,,0.00,846,Wunderground v.1.15,2013-04-05 16:44:00,
2013-04-05 11:47:00,42.5,22.1,30.29,East,101,4.0,6.0,44,0.00,,,0.00,798,Wunderground v.1.15,2013-04-05 16:47:00,
2013-04-05 11:48:00,42.5,21.5,30.29,NE,51,4.0,10.0,43,0.00,,,0.00,802,Wunderground v.1.15,2013-04-05 16:48:00,
2013-04-05 11:49:00,42.4,21.5,30.29,ENE,76,5.0,10.0,43,0.00,,,0.00,779,Wunderground v.1.15,2013-04-05 16:49:00,
2013-04-05 11:52:00,42.5,22.6,30.29,ESE,113,5.0,11.0,45,0.00,,,0.00,761,Wunderground v.1.15,2013-04-05 16:52:00,
2013-04-05 11:55:00,41.5,20.1,30.30,ESE,118,6.0,11.0,42,0.00,,,0.00,793,Wunderground v.1.15,2013-04-05 16:55:00,
2013-04-05 11:56:00,41.4,20.0,30.29,South,172,6.0,11.0,42,0.00,,,0.00,728,Wunderground v.1.15,2013-04-05 16:56:00,
2013-04-05 11:59:00,41.7,20.3,30.30,NE,56,5.0,11.0,42,0.00,,,0.00,779,Wunderground v.1.15,2013-04-05 16:59:00,
2013-04-05 12:00:00,41.8,19.8,30.30,ESE,112,5.0,6.0,41,0.00,,,0.00,824,Wunderground v.1.15,2013-04-05 17:00:00,
2013-04-05 12:01:00,41.8,19.8,30.30,East,92,5.0,6.0,41,0.00,,,0.00,831,Wunderground v.1.15,2013-04-05 17:01:00,
2013-04-05 12:02:00,41.8,20.4,30.30,SE,138,5.0,6.0,42,0.00,,,0.00,823,Wunderground v.1.15,2013-04-05 17:02:00,
2013-04-05 12:07:00,42.4,21.5,30.30,ENE,74,5.0,10.0,43,0.00,,,0.00,851,Wunderground v.1.15,2013-04-05 17:07:00,
2013-04-05 12:10:00,42.5,21.5,30.30,ENE,72,5.0,10.0,43,0.00,,,0.00,863,Wunderground v.1.15,2013-04-05 17:10:00,
2013-04-05 12:14:00,41.9,20.4,30.30,ENE,59,5.0,5.0,42,0.00,,,0.00,875,Wunderground v.1.15,2013-04-05 17:14:00,
2013-04-05 12:15:00,41.9,19.9,30.30,NNE,31,4.0,5.0,41,0.00,,,0.00,868,Wunderground v.1.15,2013-04-05 17:15:00,
2013-04-05 12:19:00,42.4,20.3,30.29,SSW,212,2.0,5.0,41,0.00,,,0.00,868,Wunderground v.1.15,2013-04-05 17:19:00,
2013-04-05 12:21:00,42.9,20.8,30.29,East,93,3.0,7.0,41,0.00,,,0.00,851,Wunderground v.1.15,2013-04-05 17:21:00,
2013-04-05 12:25:00,43.0,20.3,30.29,SSE,160,3.0,7.0,40,0.00,,,0.00,860,Wunderground v.1.15,2013-04-05 17:25:00,
2013-04-05 12:29:00,43.3,21.1,30.29,ESE,113,4.0,8.0,41,0.00,,,0.00,823,Wunderground v.1.15,2013-04-05 17:29:00,
2013-04-05 12:30:00,43.4,20.7,30.29,NE,55,4.0,4.0,40,0.00,,,0.00,823,Wunderground v.1.15,2013-04-05 17:30:00,
2013-04-05 12:32:00,43.3,19.4,30.29,NE,46,4.0,10.0,38,0.00,,,0.00,826,Wunderground v.1.15,2013-04-05 17:32:00,
2013-04-05 12:35:00,42.8,18.9,30.29,NNE,19,5.0,10.0,38,0.00,,,0.00,819,Wunderground v.1.15,2013-04-05 17:35:00,
2013-04-05 12:36:00,42.8,18.9,30.29,North,5,5.0,10.0,38,0.00,,,0.00,817,Wunderground v.1.15,2013-04-05 17:36:00,
2013-04-05 12:40:00,42.9,19.6,30.28,East,82,4.0,4.0,39,0.00,,,0.00,837,Wunderground v.1.15,2013-04-05 17:40:00,
2013-04-05 12:42:00,43.1,20.4,30.28,ENE,59,3.0,6.0,40,0.00,,,0.00,861,Wunderground v.1.15,2013-04-05 17:42:00,
2013-04-05 12:43:00,43.2,19.9,30.28,NNE,26,3.0,6.0,39,0.00,,,0.00,858,Wunderground v.1.15,2013-04-05 17:43:00,
2013-04-05 12:45:00,44.2,22.0,30.28,NNE,20,3.0,6.0,41,0.00,,,0.00,870,Wunderground v.1.15,2013-04-05 17:45:00,
2013-04-05 12:50:00,43.6,19.6,30.29,NNE,23,5.0,5.0,38,0.00,,,0.00,826,Wunderground v.1.15,2013-04-05 17:50:00,
2013-04-05 12:51:00,43.4,18.8,30.28,WNW,296,5.0,5.0,37,0.00,,,0.00,816,Wunderground v.1.15,2013-04-05 17:51:00,
2013-04-05 12:54:00,43.4,19.5,30.28,North,5,5.0,5.0,38,0.00,,,0.00,788,Wunderground v.1.15,2013-04-05 17:54:00,
2013-04-05 12:56:00,43.7,20.3,30.28,North,5,5.0,5.0,39,0.00,,,0.00,816,Wunderground v.1.15,2013-04-05 17:56:00,
2013-04-05 12:59:00,44.5,21.6,30.28,East,92,4.0,8.0,40,0.00,,,0.00,846,Wunderground v.1.15,2013-04-05 17:59:00,
2013-04-05 13:02:00,44.7,19.3,30.28,ESE,107,4.0,8.0,36,0.00,,,0.00,803,Wunderground v.1.15,2013-04-05 18:02:00,
2013-04-05 13:04:00,44.8,19.4,30.28,NE,46,5.0,8.0,36,0.00,,,0.00,814,Wunderground v.1.15,2013-04-05 18:04:00,
2013-04-05 13:05:00,44.6,18.6,30.28,NNE,19,5.0,8.0,35,0.00,,,0.00,793,Wunderground v.1.15,2013-04-05 18:05:00,
2013-04-05 13:07:00,44.1,18.8,30.28,NNE,28,5.0,8.0,36,0.00,,,0.00,772,Wunderground v.1.15,2013-04-05 18:07:00,
2013-04-05 13:10:00,43.8,19.8,30.27,NW,315,6.0,7.0,38,0.00,,,0.00,782,Wunderground v.1.15,2013-04-05 18:10:00,
2013-04-05 13:12:00,44.0,20.0,30.27,NW,316,5.0,7.0,38,0.00,,,0.00,830,Wunderground v.1.15,2013-04-05 18:12:00,
2013-04-05 13:14:00,44.8,20.7,30.27,East,90,4.0,7.0,38,0.00,,,0.00,819,Wunderground v.1.15,2013-04-05 18:14:00,
2013-04-05 13:17:00,45.1,20.3,30.27,SE,132,4.0,7.0,37,0.00,,,0.00,830,Wunderground v.1.15,2013-04-05 18:17:00,
2013-04-05 13:20:00,44.3,20.9,30.27,ESE,121,4.0,5.0,39,0.00,,,0.00,823,Wunderground v.1.15,2013-04-05 18:20:00,
2013-04-05 13:21:00,44.1,20.7,30.27,ESE,113,4.0,5.0,39,0.00,,,0.00,823,Wunderground v.1.15,2013-04-05 18:21:00,
2013-04-05 13:25:00,44.4,21.6,30.27,ESE,123,4.0,7.0,40,0.00,,,0.00,759,Wunderground v.1.15,2013-04-05 18:25:00,
2013-04-05 13:27:00,44.5,22.2,30.27,SE,131,4.0,8.0,41,0.00,,,0.00,835,Wunderground v.1.15,2013-04-05 18:27:00,
2013-04-05 13:29:00,44.9,22.0,30.27,ESE,105,4.0,8.0,40,0.00,,,0.00,798,Wunderground v.1.15,2013-04-05 18:29:00,
2013-04-05 13:31:00,44.5,19.8,30.27,SE,132,3.0,3.0,37,0.00,,,0.00,802,Wunderground v.1.15,2013-04-05 18:31:00,
2013-04-05 13:33:00,44.3,20.3,30.26,SE,132,3.0,3.0,38,0.00,,,0.00,802,Wunderground v.1.15,2013-04-05 18:33:00,
2013-04-05 13:34:00,44.3,20.3,30.26,ESE,111,3.0,3.0,38,0.00,,,0.00,812,Wunderground v.1.15,2013-04-05 18:34:00,
2013-04-05 13:35:00,44.3,19.0,30.26,ESE,111,3.0,3.0,36,0.00,,,0.00,819,Wunderground v.1.15,2013-04-05 18:35:00,
2013-04-05 13:39:00,45.8,21.0,30.26,SE,132,1.0,6.0,37,0.00,,,0.00,800,Wunderground v.1.15,2013-04-05 18:39:00,
2013-04-05 13:40:00,45.4,19.3,30.27,SSE,157,2.0,2.0,35,0.00,,,0.00,796,Wunderground v.1.15,2013-04-05 18:40:00,
2013-04-05 13:44:00,45.6,20.8,30.27,East,82,2.0,4.0,37,0.00,,,0.00,788,Wunderground v.1.15,2013-04-05 18:44:00,
2013-04-05 13:46:00,46.3,20.8,30.26,SE,127,2.0,4.0,36,0.00,,,0.00,793,Wunderground v.1.15,2013-04-05 18:46:00,
2013-04-05 13:47:00,46.1,19.9,30.26,SE,127,2.0,4.0,35,0.00,,,0.00,793,Wunderground v.1.15,2013-04-05 18:47:00,
2013-04-05 13:50:00,45.4,20.0,30.26,NW,310,2.0,3.0,36,0.00,,,0.00,802,Wunderground v.1.15,2013-04-05 18:50:00,
2013-04-05 13:52:00,45.2,20.4,30.26,NW,307,2.0,4.0,37,0.00,,,0.00,828,Wunderground v.1.15,2013-04-05 18:52:00,
2013-04-05 13:53:00,45.6,21.4,30.26,ESE,109,2.0,6.0,38,0.00,,,0.00,844,Wunderground v.1.15,2013-04-05 18:53:00,
2013-04-05 13:57:00,45.9,20.4,30.26,NE,48,4.0,7.0,36,0.00,,,0.00,802,Wunderground v.1.15,2013-04-05 18:57:00,
2013-04-05 13:58:00,46.1,22.5,30.26,SE,141,5.0,7.0,39,0.00,,,0.00,773,Wunderground v.1.15,2013-04-05 18:58:00,
2013-04-05 14:00:00,46.1,20.6,30.26,ENE,67,5.0,5.0,36,0.00,,,0.00,779,Wunderground v.1.15,2013-04-05 19:00:00,
2013-04-05 14:01:00,46.1,20.6,30.25,NE,38,5.0,5.0,36,0.00,,,0.00,754,Wunderground v.1.15,2013-04-05 19:01:00,
2013-04-05 14:03:00,45.6,20.8,30.25,North,360,5.0,5.0,37,0.00,,,0.00,696,Wunderground v.1.15,2013-04-05 19:03:00,
2013-04-05 14:05:00,45.8,21.0,30.25,NNE,24,4.0,5.0,37,0.00,,,0.00,731,Wunderground v.1.15,2013-04-05 19:05:00,
2013-04-05 14:09:00,46.6,21.7,30.25,NE,46,3.0,5.0,37,0.00,,,0.00,744,Wunderground v.1.15,2013-04-05 19:09:00,
2013-04-05 14:10:00,47.0,21.4,30.25,ENE,63,3.0,3.0,36,0.00,,,0.00,749,Wunderground v.1.15,2013-04-05 19:10:00,
2013-04-05 14:13:00,46.5,21.6,30.25,ESE,118,2.0,5.0,37,0.00,,,0.00,761,Wunderground v.1.15,2013-04-05 19:13:00,
2013-04-05 14:14:00,46.5,21.6,30.25,SE,138,3.0,5.0,37,0.00,,,0.00,747,Wunderground v.1.15,2013-04-05 19:14:00,
2013-04-05 14:19:00,46.0,21.8,30.25,SE,146,4.0,7.0,38,0.00,,,0.00,768,Wunderground v.1.15,2013-04-05 19:19:00,
2013-04-05 14:20:00,46.8,23.7,30.25,South,187,3.0,3.0,40,0.00,,,0.00,793,Wunderground v.1.15,2013-04-05 19:20:00,
2013-04-05 14:22:00,46.6,22.3,30.24,SW,221,4.0,7.0,38,0.00,,,0.00,761,Wunderground v.1.15,2013-04-05 19:22:00,
2013-04-05 14:24:00,47.0,22.0,30.24,SW,216,4.0,7.0,37,0.00,,,0.00,737,Wunderground v.1.15,2013-04-05 19:24:00,
2013-04-05 14:27:00,47.8,22.8,30.24,SE,129,2.0,7.0,37,0.00,,,0.00,645,Wunderground v.1.15,2013-04-05 19:27:00,
2013-04-05 14:28:00,47.8,22.8,30.24,SE,132,2.0,7.0,37,0.00,,,0.00,645,Wunderground v.1.15,2013-04-05 19:28:00,
2013-04-05 14:30:00,47.6,23.2,30.24,ESE,107,3.0,4.0,38,0.00,,,0.00,729,Wunderground v.1.15,2013-04-05 19:30:00,
2013-04-05 14:31:00,47.3,21.7,30.24,ESE,105,2.0,4.0,36,0.00,,,0.00,729,Wunderground v.1.15,2013-04-05 19:31:00,
2013-04-05 14:33:00,47.3,22.3,30.24,NE,39,2.0,6.0,37,0.00,,,0.00,758,Wunderground v.1.15,2013-04-05 19:33:00,
2013-04-05 14:36:00,47.2,21.6,30.23,NE,51,4.0,6.0,36,0.00,,,0.00,701,Wunderground v.1.15,2013-04-05 19:36:00,
2013-04-05 14:39:00,46.7,20.5,30.23,NE,36,4.0,6.0,35,0.00,,,0.00,617,Wunderground v.1.15,2013-04-05 19:39:00,
2013-04-05 14:41:00,46.8,21.2,30.23,NE,51,5.0,7.0,36,0.00,,,0.00,592,Wunderground v.1.15,2013-04-05 19:41:00,
2013-04-05 14:42:00,46.8,20.6,30.23,ENE,74,5.0,7.0,35,0.00,,,0.00,626,Wunderground v.1.15,2013-04-05 19:42:00,
2013-04-05 14:44:00,46.5,20.3,30.23,NE,49,5.0,7.0,35,0.00,,,0.00,703,Wunderground v.1.15,2013-04-05 19:44:00,
2013-04-05 14:49:00,46.8,20.6,30.22,NNE,15,4.0,7.0,35,0.00,,,0.00,601,Wunderground v.1.15,2013-04-05 19:49:00,
2013-04-05 14:50:00,47.1,20.8,30.22,ESE,112,3.0,4.0,35,0.00,,,0.00,703,Wunderground v.1.15,2013-04-05 19:50:00,
2013-04-05 14:54:00,47.2,20.9,30.22,ENE,63,3.0,8.0,35,0.00,,,0.00,693,Wunderground v.1.15,2013-04-05 19:54:00,
2013-04-05 14:57:00,46.9,20.0,30.22,SSE,153,5.0,8.0,34,0.00,,,0.00,691,Wunderground v.1.15,2013-04-05 19:57:00,
2013-04-05 14:59:00,46.9,20.0,30.21,ENE,78,5.0,8.0,34,0.00,,,0.00,679,Wunderground v.1.15,2013-04-05 19:59:00,
2013-04-05 15:02:00,47.2,19.5,30.21,East,86,6.0,7.0,33,0.00,,,0.00,663,Wunderground v.1.15,2013-04-05 20:02:00,
2013-04-05 15:04:00,47.4,19.7,30.22,NE,53,6.0,11.0,33,0.00,,,0.00,747,Wunderground v.1.15,2013-04-05 20:04:00,
2013-04-05 15:05:00,47.2,18.8,30.22,East,90,6.0,11.0,32,0.00,,,0.00,740,Wunderground v.1.15,2013-04-05 20:05:00,
2013-04-05 15:09:00,47.5,19.8,30.21,NE,40,7.0,11.0,33,0.00,,,0.00,673,Wunderground v.1.15,2013-04-05 20:09:00,
2013-04-05 15:11:00,47.1,18.7,30.21,NE,54,7.0,7.0,32,0.00,,,0.00,773,Wunderground v.1.15,2013-04-05 20:11:00,
2013-04-05 15:14:00,47.0,18.6,30.22,NE,49,6.0,7.0,32,0.00,,,0.00,680,Wunderground v.1.15,2013-04-05 20:14:00,
2013-04-05 15:16:00,47.4,19.0,30.22,East,90,6.0,7.0,32,0.00,,,0.00,499,Wunderground v.1.15,2013-04-05 20:16:00,
2013-04-05 15:19:00,47.5,19.1,30.22,ESE,117,5.0,7.0,32,0.00,,,0.00,731,Wunderground v.1.15,2013-04-05 20:19:00,
2013-04-05 15:20:00,47.4,19.7,30.22,ENE,75,5.0,7.0,33,0.00,,,0.00,534,Wunderground v.1.15,2013-04-05 20:20:00,
2013-04-05 15:24:00,47.2,19.5,30.22,East,87,5.0,8.0,33,0.00,,,0.00,297,Wunderground v.1.15,2013-04-05 20:24:00,
2013-04-05 15:25:00,47.2,20.2,30.22,SE,127,5.0,8.0,34,0.00,,,0.00,290,Wunderground v.1.15,2013-04-05 20:25:00,
2013-04-05 15:29:00,46.9,20.6,30.22,ENE,63,6.0,8.0,35,0.00,,,0.00,364,Wunderground v.1.15,2013-04-05 20:29:00,
2013-04-05 15:33:00,47.4,21.1,30.22,East,82,4.0,5.0,35,0.00,,,0.00,744,Wunderground v.1.15,2013-04-05 20:33:00,
2013-04-05 15:34:00,47.4,19.7,30.22,East,82,3.0,5.0,33,0.00,,,0.00,733,Wunderground v.1.15,2013-04-05 20:34:00,
2013-04-05 15:35:00,47.5,19.8,30.22,East,82,3.0,5.0,33,0.00,,,0.00,733,Wunderground v.1.15,2013-04-05 20:35:00,
2013-04-05 15:37:00,47.3,19.6,30.22,East,82,2.0,5.0,33,0.00,,,0.00,309,Wunderground v.1.15,2013-04-05 20:37:00,
2013-04-05 15:40:00,47.8,20.8,30.22,ENE,76,2.0,3.0,34,0.00,,,0.00,401,Wunderground v.1.15,2013-04-05 20:40:00,
2013-04-05 15:42:00,47.8,22.1,30.22,ESE,111,2.0,6.0,36,0.00,,,0.00,378,Wunderground v.1.15,2013-04-05 20:42:00,
2013-04-05 15:44:00,47.7,21.3,30.22,SSE,161,3.0,6.0,35,0.00,,,0.00,494,Wunderground v.1.15,2013-04-05 20:44:00,
2013-04-05 15:45:00,47.6,20.6,30.22,ESE,119,3.0,6.0,34,0.00,,,0.00,512,Wunderground v.1.15,2013-04-05 20:45:00,
2013-04-05 15:47:00,47.2,19.5,30.22,ENE,67,4.0,6.0,33,0.00,,,0.00,533,Wunderground v.1.15,2013-04-05 20:47:00,
2013-04-05 15:51:00,47.6,21.3,30.22,South,184,4.0,4.0,35,0.00,,,0.00,452,Wunderground v.1.15,2013-04-05 20:51:00,
2013-04-05 15:54:00,47.6,19.9,30.22,ENE,78,4.0,6.0,33,0.00,,,0.00,355,Wunderground v.1.15,2013-04-05 20:54:00,
2013-04-05 15:56:00,47.5,19.8,30.22,East,81,4.0,7.0,33,0.00,,,0.00,362,Wunderground v.1.15,2013-04-05 20:56:00,
2013-04-05 15:59:00,47.8,20.8,30.22,ENE,63,4.0,7.0,34,0.00,,,0.00,341,Wunderground v.1.15,2013-04-05 20:59:00,
2013-04-05 16:00:00,47.9,21.5,30.22,ENE,62,4.0,6.0,35,0.00,,,0.00,367,Wunderground v.1.15,2013-04-05 21:00:00,
2013-04-05 16:02:00,48.0,21.6,30.21,NE,53,4.0,6.0,35,0.00,,,0.00,301,Wunderground v.1.15,2013-04-05 21:02:00,
2013-04-05 16:04:00,48.0,21.6,30.21,ENE,58,4.0,7.0,35,0.00,,,0.00,320,Wunderground v.1.15,2013-04-05 21:04:00,
2013-04-05 16:05:00,48.1,21.0,30.22,East,93,4.0,7.0,34,0.00,,,0.00,380,Wunderground v.1.15,2013-04-05 21:05:00,
2013-04-05 16:07:00,48.0,21.6,30.22,East,97,4.0,7.0,35,0.00,,,0.00,432,Wunderground v.1.15,2013-04-05 21:07:00,
2013-04-05 16:10:00,47.9,20.8,30.21,ENE,73,4.0,5.0,34,0.00,,,0.00,392,Wunderground v.1.15,2013-04-05 21:10:00,
2013-04-05 16:11:00,47.8,20.8,30.21,SE,145,4.0,5.0,34,0.00,,,0.00,394,Wunderground v.1.15,2013-04-05 21:11:00,
2013-04-05 16:12:00,47.5,20.5,30.21,SE,142,4.0,5.0,34,0.00,,,0.00,346,Wunderground v.1.15,2013-04-05 21:12:00,
2013-04-05 16:16:00,47.1,20.8,30.21,ESE,109,3.0,6.0,35,0.00,,,0.00,227,Wunderground v.1.15,2013-04-05 21:16:00,
2013-04-05 16:17:00,47.0,20.7,30.21,ESE,109,3.0,6.0,35,0.00,,,0.00,218,Wunderground v.1.15,2013-04-05 21:17:00,
2013-04-05 16:20:00,47.0,20.7,30.21,ESE,109,1.0,1.0,35,0.00,,,0.00,223,Wunderground v.1.15,2013-04-05 21:20:00,
2013-04-05 16:22:00,47.4,21.1,30.21,ESE,109,1.0,1.0,35,0.00,,,0.00,221,Wunderground v.1.15,2013-04-05 21:22:00,
2013-04-05 16:24:00,47.3,21.0,30.21,ESE,105,1.0,5.0,35,0.00,,,0.00,241,Wunderground v.1.15,2013-04-05 21:24:00,
2013-04-05 16:27:00,47.3,21.0,30.21,East,83,1.0,5.0,35,0.00,,,0.00,244,Wunderground v.1.15,2013-04-05 21:27:00,
2013-04-05 16:29:00,47.3,21.0,30.21,ENE,78,1.0,5.0,35,0.00,,,0.00,216,Wunderground v.1.15,2013-04-05 21:29:00,
2013-04-05 16:32:00,47.3,21.0,30.21,ENE,78,1.0,1.0,35,0.00,,,0.00,200,Wunderground v.1.15,2013-04-05 21:32:00,
2013-04-05 16:34:00,47.4,21.1,30.21,East,79,1.0,1.0,35,0.00,,,0.00,193,Wunderground v.1.15,2013-04-05 21:34:00,
2013-04-05 16:37:00,47.6,20.6,30.21,SSW,207,1.0,2.0,34,0.00,,,0.00,178,Wunderground v.1.15,2013-04-05 21:37:00,
2013-04-05 16:39:00,47.6,20.6,30.21,SE,134,1.0,4.0,34,0.00,,,0.00,137,Wunderground v.1.15,2013-04-05 21:39:00,
2013-04-05 16:42:00,47.4,21.1,30.21,ENE,68,2.0,5.0,35,0.00,,,0.00,127,Wunderground v.1.15,2013-04-05 21:42:00,
2013-04-05 16:43:00,47.4,21.1,30.21,East,91,2.0,5.0,35,0.00,,,0.00,127,Wunderground v.1.15,2013-04-05 21:43:00,
2013-04-05 16:44:00,47.4,20.4,30.21,East,85,2.0,5.0,34,0.00,,,0.00,128,Wunderground v.1.15,2013-04-05 21:44:00,
2013-04-05 16:49:00,47.4,20.4,30.21,ESE,121,2.0,5.0,34,0.00,,,0.00,102,Wunderground v.1.15,2013-04-05 21:49:00,
2013-04-05 16:50:00,47.4,21.1,30.21,SE,140,2.0,5.0,35,0.00,,,0.00,93,Wunderground v.1.15,2013-04-05 21:50:00,
2013-04-05 16:51:00,47.4,20.4,30.21,SE,125,2.0,5.0,34,0.00,,,0.00,84,Wunderground v.1.15,2013-04-05 21:51:00,
2013-04-05 16:57:00,47.4,20.4,30.21,ENE,59,2.0,5.0,34,0.00,,,0.00,79,Wunderground v.1.15,2013-04-05 21:57:00,
2013-04-05 16:59:00,47.4,20.4,30.21,East,97,3.0,5.0,34,0.00,,,0.00,81,Wunderground v.1.15,2013-04-05 21:59:00,
2013-04-05 17:03:00,47.0,21.4,30.21,SE,142,3.0,5.0,36,0.00,,,0.00,90,Wunderground v.1.15,2013-04-05 22:03:00,
2013-04-05 17:04:00,47.0,20.7,30.21,SE,141,3.0,5.0,35,0.00,,,0.00,93,Wunderground v.1.15,2013-04-05 22:04:00,
2013-04-05 17:05:00,47.0,20.7,30.21,SE,141,3.0,5.0,35,0.00,,,0.00,97,Wunderground v.1.15,2013-04-05 22:05:00,
2013-04-05 17:09:00,47.1,20.8,30.21,SE,140,2.0,5.0,35,0.00,,,0.00,120,Wunderground v.1.15,2013-04-05 22:09:00,
2013-04-05 17:10:00,47.2,21.6,30.21,SE,134,1.0,4.0,36,0.00,,,0.00,123,Wunderground v.1.15,2013-04-05 22:10:00,
2013-04-05 17:11:00,47.2,21.6,30.21,ESE,108,1.0,4.0,36,0.00,,,0.00,125,Wunderground v.1.15,2013-04-05 22:11:00,
2013-04-05 17:14:00,47.2,20.9,30.21,East,93,1.0,4.0,35,0.00,,,0.00,149,Wunderground v.1.15,2013-04-05 22:14:00,
2013-04-05 17:19:00,47.0,20.0,30.21,SE,140,1.0,4.0,34,0.00,,,0.00,158,Wunderground v.1.15,2013-04-05 22:19:00,
2013-04-05 17:22:00,47.6,21.3,30.20,NE,53,1.0,4.0,35,0.00,,,0.00,144,Wunderground v.1.15,2013-04-05 22:22:00,
2013-04-05 17:27:00,47.5,20.5,30.20,South,179,1.0,4.0,34,0.00,,,0.00,118,Wunderground v.1.15,2013-04-05 22:27:00,
2013-04-05 17:29:00,47.4,19.7,30.20,SE,140,2.0,5.0,33,0.00,,,0.00,107,Wunderground v.1.15,2013-04-05 22:29:00,
2013-04-05 17:30:00,47.2,20.2,30.20,SSE,154,3.0,5.0,34,0.00,,,0.00,102,Wunderground v.1.15,2013-04-05 22:30:00,
2013-04-05 17:32:00,47.0,20.0,30.20,SSE,153,3.0,5.0,34,0.00,,,0.00,98,Wunderground v.1.15,2013-04-05 22:32:00,
2013-04-05 17:35:00,47.0,20.7,30.20,ENE,75,3.0,5.0,35,0.00,,,0.00,95,Wunderground v.1.15,2013-04-05 22:35:00,
2013-04-05 17:36:00,47.1,20.1,30.20,ENE,75,3.0,5.0,34,0.00,,,0.00,95,Wunderground v.1.15,2013-04-05 22:36:00,
2013-04-05 17:37:00,47.2,20.9,30.20,ENE,75,3.0,5.0,35,0.00,,,0.00,93,Wunderground v.1.15,2013-04-05 22:37:00,
2013-04-05 17:41:00,47.3,21.0,30.20,ENE,65,2.0,2.0,35,0.00,,,0.00,86,Wunderground v.1.15,2013-04-05 22:41:00,
2013-04-05 17:42:00,47.4,21.1,30.19,ENE,71,2.0,2.0,35,0.00,,,0.00,83,Wunderground v.1.15,2013-04-05 22:42:00,
2013-04-05 17:43:00,47.4,20.4,30.20,East,86,2.0,3.0,34,0.00,,,0.00,79,Wunderground v.1.15,2013-04-05 22:43:00,
2013-04-05 17:49:00,47.3,20.3,30.19,ESE,113,3.0,5.0,34,0.00,,,0.00,77,Wunderground v.1.15,2013-04-05 22:49:00,
2013-04-05 17:52:00,47.1,20.8,30.19,ENE,59,4.0,7.0,35,0.00,,,0.00,90,Wunderground v.1.15,2013-04-05 22:52:00,
2013-04-05 17:56:00,47.0,21.4,30.19,ENE,61,5.0,7.0,36,0.00,,,0.00,100,Wunderground v.1.15,2013-04-05 22:56:00,
2013-04-05 17:59:00,47.0,21.4,30.19,ENE,67,5.0,7.0,36,0.00,,,0.00,97,Wunderground v.1.15,2013-04-05 22:59:00,
2013-04-05 18:00:00,46.9,21.3,30.18,ESE,106,5.0,5.0,36,0.00,,,0.00,91,Wunderground v.1.15,2013-04-05 23:00:00,
2013-04-05 18:04:00,46.9,22.0,30.18,NE,36,4.0,5.0,37,0.00,,,0.00,81,Wunderground v.1.15,2013-04-05 23:04:00,
2013-04-05 18:05:00,46.9,22.0,30.18,East,89,4.0,5.0,37,0.00,,,0.00,77,Wunderground v.1.15,2013-04-05 23:05:00,
2013-04-05 18:09:00,46.9,22.0,30.18,ENE,59,3.0,5.0,37,0.00,,,0.00,70,Wunderground v.1.15,2013-04-05 23:09:00,
2013-04-05 18:10:00,47.0,22.0,30.18,ENE,75,2.0,5.0,37,0.00,,,0.00,70,Wunderground v.1.15,2013-04-05 23:10:00,
2013-04-05 18:14:00,46.9,21.3,30.18,ESE,111,3.0,7.0,36,0.00,,,0.00,69,Wunderground v.1.15,2013-04-05 23:14:00,
2013-04-05 18:17:00,46.7,21.1,30.18,ENE,65,3.0,7.0,36,0.00,,,0.00,65,Wunderground v.1.15,2013-04-05 23:17:00,
2013-04-05 18:20:00,46.8,21.9,30.18,ENE,78,3.0,3.0,37,0.00,,,0.00,60,Wunderground v.1.15,2013-04-05 23:20:00,
2013-04-05 18:22:00,46.7,21.8,30.18,East,98,3.0,6.0,37,0.00,,,0.00,58,Wunderground v.1.15,2013-04-05 23:22:00,
2013-04-05 18:24:00,46.7,21.1,30.18,East,80,3.0,6.0,36,0.00,,,0.00,58,Wunderground v.1.15,2013-04-05 23:24:00,
2013-04-05 18:26:00,46.6,21.7,30.18,ENE,70,3.0,6.0,37,0.00,,,0.00,62,Wunderground v.1.15,2013-04-05 23:26:00,
2013-04-05 18:27:00,46.6,21.7,30.18,East,92,3.0,6.0,37,0.00,,,0.00,63,Wunderground v.1.15,2013-04-05 23:27:00,
2013-04-05 18:29:00,46.6,21.7,30.18,ENE,59,3.0,6.0,37,0.00,,,0.00,65,Wunderground v.1.15,2013-04-05 23:29:00,
2013-04-05 18:32:00,46.6,22.3,30.18,SE,128,3.0,4.0,38,0.00,,,0.00,56,Wunderground v.1.15,2013-04-05 23:32:00,
2013-04-05 18:34:00,46.5,21.6,30.18,NE,56,3.0,5.0,37,0.00,,,0.00,53,Wunderground v.1.15,2013-04-05 23:34:00,
2013-04-05 18:36:00,46.5,21.6,30.18,ENE,77,3.0,5.0,37,0.00,,,0.00,46,Wunderground v.1.15,2013-04-05 23:36:00,
2013-04-05 18:39:00,46.5,22.2,30.18,ESE,111,3.0,5.0,38,0.00,,,0.00,40,Wunderground v.1.15,2013-04-05 23:39:00,
2013-04-05 18:42:00,46.4,22.1,30.18,ESE,103,3.0,4.0,38,0.00,,,0.00,40,Wunderground v.1.15,2013-04-05 23:42:00,
2013-04-05 18:43:00,46.3,22.0,30.18,ESE,107,3.0,4.0,38,0.00,,,0.00,39,Wunderground v.1.15,2013-04-05 23:43:00,
2013-04-05 18:45:00,46.3,22.7,30.18,East,87,3.0,4.0,39,0.00,,,0.00,37,Wunderground v.1.15,2013-04-05 23:45:00,
2013-04-05 18:49:00,46.2,22.6,30.18,ENE,71,3.0,5.0,39,0.00,,,0.00,33,Wunderground v.1.15,2013-04-05 23:49:00,
2013-04-05 18:51:00,46.2,22.6,30.18,ESE,105,3.0,5.0,39,0.00,,,0.00,30,Wunderground v.1.15,2013-04-05 23:51:00,
2013-04-05 18:54:00,46.1,23.1,30.18,ESE,103,3.0,5.0,40,0.00,,,0.00,28,Wunderground v.1.15,2013-04-05 23:54:00,
2013-04-05 18:55:00,46.1,23.1,30.18,East,92,3.0,5.0,40,0.00,,,0.00,28,Wunderground v.1.15,2013-04-05 23:55:00,
2013-04-05 18:57:00,46.0,23.6,30.18,East,84,3.0,5.0,41,0.00,,,0.00,23,Wunderground v.1.15,2013-04-05 23:57:00,
2013-04-05 19:00:00,46.0,23.0,30.18,East,87,3.0,3.0,40,0.00,,,0.00,16,Wunderground v.1.15,2013-04-06 00:00:00,
2013-04-05 19:02:00,45.9,22.9,30.17,East,84,2.0,3.0,40,0.00,,,0.00,14,Wunderground v.1.15,2013-04-06 00:02:00,
2013-04-05 19:03:00,45.9,22.9,30.17,East,84,2.0,3.0,40,0.00,,,0.00,12,Wunderground v.1.15,2013-04-06 00:03:00,
2013-04-05 19:09:00,45.8,23.4,30.17,SE,135,1.0,6.0,41,0.00,,,0.00,7,Wunderground v.1.15,2013-04-06 00:09:00,
2013-04-05 19:10:00,45.7,23.9,30.17,SSE,152,2.0,8.0,42,0.00,,,0.00,5,Wunderground v.1.15,2013-04-06 00:10:00,
2013-04-05 19:14:00,45.2,24.6,30.17,South,178,4.0,9.0,44,0.00,,,0.00,0,Wunderground v.1.15,2013-04-06 00:14:00,
2013-04-05 19:16:00,44.9,24.3,30.17,SE,141,5.0,9.0,44,0.00,,,0.00,0,Wunderground v.1.15,2013-04-06 00:16:00,
2013-04-05 19:19:00,44.7,24.6,30.17,ENE,63,6.0,9.0,45,0.00,,,0.00,0,Wunderground v.1.15,2013-04-06 00:19:00,
2013-04-05 19:24:00,44.5,25.0,30.17,ESE,108,4.0,8.0,46,0.00,,,0.00,0,Wunderground v.1.15,2013-04-06 00:24:00,
2013-04-05 19:26:00,44.4,25.4,30.17,SE,127,4.0,8.0,47,0.00,,,0.00,0,Wunderground v.1.15,2013-04-06 00:26:00,
2013-04-05 19:28:00,44.3,25.3,30.17,SE,127,3.0,8.0,47,0.00,,,0.00,0,Wunderground v.1.15,2013-04-06 00:28:00,
2013-04-05 19:29:00,44.2,25.2,30.17,South,187,3.0,8.0,47,0.00,,,0.00,0,Wunderground v.1.15,2013-04-06 00:29:00,
2013-04-05 19:30:00,44.2,25.7,30.17,South,178,2.0,8.0,48,0.00,,,0.00,0,Wunderground v.1.15,2013-04-06 00:30:00,
2013-04-05 19:34:00,43.6,26.2,30.17,WNW,292,3.0,10.0,50,0.00,,,0.00,0,Wunderground v.1.15,2013-04-06 00:34:00,
2013-04-05 19:35:00,43.6,26.2,30.17,SSE,147,3.0,11.0,50,0.00,,,0.00,0,Wunderground v.1.15,2013-04-06 00:35:00,
2013-04-05 19:39:00,43.3,27.8,30.18,SE,126,6.0,17.0,54,0.00,,,0.00,0,Wunderground v.1.15,2013-04-06 00:39:00,
2013-04-05 19:41:00,43.1,27.6,30.17,SSE,155,7.0,11.0,54,0.00,,,0.00,0,Wunderground v.1.15,2013-04-06 00:41:00,
2013-04-05 19:44:00,42.7,28.1,30.17,SE,134,7.0,11.0,56,0.00,,,0.00,0,Wunderground v.1.15,2013-04-06 00:44:00,
2013-04-05 19:45:00,42.5,27.9,30.17,ESE,105,7.0,11.0,56,0.00,,,0.00,0,Wunderground v.1.15,2013-04-06 00:45:00,
2013-04-05 19:49:00,42.2,28.0,30.18,SSE,155,7.0,11.0,57,0.00,,,0.00,0,Wunderground v.1.15,2013-04-06 00:49:00,
2013-04-05 19:51:00,42.0,28.7,30.18,South,175,6.0,6.0,59,0.00,,,0.00,0,Wunderground v.1.15,2013-04-06 00:51:00,
2013-04-05 19:56:00,41.5,29.0,30.17,SSE,158,6.0,9.0,61,0.00,,,0.00,0,Wunderground v.1.15,2013-04-06 00:56:00,
2013-04-05 19:57:00,41.4,28.9,30.17,SE,141,6.0,12.0,61,0.00,,,0.00,0,Wunderground v.1.15,2013-04-06 00:57:00,
2013-04-05 19:59:00,41.4,28.9,30.17,ESE,123,6.0,12.0,61,0.00,,,0.00,0,Wunderground v.1.15,2013-04-06 00:59:00,
2013-04-05 20:04:00,41.1,29.5,30.17,SE,130,6.0,7.0,63,0.00,,,0.00,0,Wunderground v.1.15,2013-04-06 01:04:00,
2013-04-05 20:06:00,41.0,29.7,30.16,ESE,116,6.0,9.0,64,0.00,,,0.00,0,Wunderground v.1.15,2013-04-06 01:06:00,
2013-04-05 20:09:00,40.9,30.0,30.16,East,92,5.0,9.0,65,0.00,,,0.00,0,Wunderground v.1.15,2013-04-06 01:09:00,
2013-04-05 20:12:00,40.7,30.2,30.16,SE,144,5.0,8.0,66,0.00,,,0.00,0,Wunderground v.1.15,2013-04-06 01:12:00,
2013-04-05 20:14:00,40.6,29.7,30.16,South,172,4.0,8.0,65,0.00,,,0.00,0,Wunderground v.1.15,2013-04-06 01:14:00,
2013-04-05 20:17:00,40.7,29.8,30.16,ESE,118,3.0,13.0,65,0.00,,,0.00,0,Wunderground v.1.15,2013-04-06 01:17:00,
2013-04-05 20:19:00,40.7,29.8,30.16,East,98,4.0,13.0,65,0.00,,,0.00,0,Wunderground v.1.15,2013-04-06 01:19:00,
2013-04-05 20:21:00,40.7,29.8,30.16,East,88,4.0,4.0,65,0.00,,,0.00,0,Wunderground v.1.15,2013-04-06 01:21:00,
2013-04-05 20:23:00,40.8,30.3,30.16,ESE,109,4.0,5.0,66,0.00,,,0.00,0,Wunderground v.1.15,2013-04-06 01:23:00,
2013-04-05 20:25:00,40.8,30.3,30.15,ENE,71,5.0,8.0,66,0.00,,,0.00,0,Wunderground v.1.15,2013-04-06 01:25:00,
2013-04-05 20:26:00,40.8,29.9,30.15,ENE,62,5.0,8.0,65,0.00,,,0.00,0,Wunderground v.1.15,2013-04-06 01:26:00,
2013-04-05 20:29:00,40.8,29.9,30.15,East,97,6.0,9.0,65,0.00,,,0.00,0,Wunderground v.1.15,2013-04-06 01:29:00,
2013-04-05 20:30:00,40.9,30.0,30.15,ENE,69,6.0,6.0,65,0.00,,,0.00,0,Wunderground v.1.15,2013-04-06 01:30:00,
2013-04-05 20:34:00,40.9,30.0,30.15,ENE,61,7.0,9.0,65,0.00,,,0.00,0,Wunderground v.1.15,2013-04-06 01:34:00,
2013-04-05 20:35:00,40.9,30.0,30.15,ENE,59,7.0,9.0,65,0.00,,,0.00,0,Wunderground v.1.15,2013-04-06 01:35:00,
2013-04-05 20:37:00,40.9,30.0,30.15,NE,51,6.0,9.0,65,0.00,,,0.00,0,Wunderground v.1.15,2013-04-06 01:37:00,
2013-04-05 20:40:00,40.9,30.0,30.15,ENE,62,6.0,6.0,65,0.00,,,0.00,0,Wunderground v.1.15,2013-04-06 01:40:00,
2013-04-05 20:42:00,40.9,30.0,30.16,ENE,58,6.0,6.0,65,0.00,,,0.00,0,Wunderground v.1.15,2013-04-06 01:42:00,
2013-04-05 20:43:00,40.9,29.7,30.16,SE,124,6.0,6.0,64,0.00,,,0.00,0,Wunderground v.1.15,2013-04-06 01:43:00,
2013-04-05 20:45:00,40.9,29.7,30.16,East,87,6.0,7.0,64,0.00,,,0.00,0,Wunderground v.1.15,2013-04-06 01:45:00,
2013-04-05 20:49:00,41.0,29.7,30.16,ENE,69,5.0,8.0,64,0.00,,,0.00,0,Wunderground v.1.15,2013-04-06 01:49:00,
2013-04-05 20:51:00,41.0,29.7,30.15,NE,55,6.0,7.0,64,0.00,,,0.00,0,Wunderground v.1.15,2013-04-06 01:51:00,
2013-04-05 20:55:00,41.0,29.7,30.15,ENE,78,5.0,7.0,64,0.00,,,0.00,0,Wunderground v.1.15,2013-04-06 01:55:00,
2013-04-05 20:57:00,41.0,31.2,30.15,ENE,73,5.0,7.0,68,0.00,,,0.00,0,Wunderground v.1.15,2013-04-06 01:57:00,
2013-04-05 21:00:00,41.0,30.9,30.15,East,88,5.0,6.0,67,0.00,,,0.00,0,Wunderground v.1.15,2013-04-06 02:00:00,
2013-04-05 21:04:00,41.0,29.7,30.15,ENE,73,5.0,6.0,64,0.00,,,0.00,0,Wunderground v.1.15,2013-04-06 02:04:00,
2013-04-05 21:05:00,41.0,29.7,30.15,NE,40,5.0,6.0,64,0.00,,,0.00,0,Wunderground v.1.15,2013-04-06 02:05:00,
2013-04-05 21:09:00,41.0,29.4,30.15,ESE,105,5.0,6.0,63,0.00,,,0.00,0,Wunderground v.1.15,2013-04-06 02:09:00,
2013-04-05 21:10:00,41.1,29.5,30.15,East,97,4.0,5.0,63,0.00,,,0.00,0,Wunderground v.1.15,2013-04-06 02:10:00,
2013-04-05 21:15:00,41.1,29.5,30.15,East,88,3.0,5.0,63,0.00,,,0.00,0,Wunderground v.1.15,2013-04-06 02:15:00,
2013-04-05 21:16:00,41.1,29.5,30.16,East,79,3.0,5.0,63,0.00,,,0.00,0,Wunderground v.1.15,2013-04-06 02:16:00,
2013-04-05 21:17:00,41.1,29.5,30.16,East,79,3.0,5.0,63,0.00,,,0.00,0,Wunderground v.1.15,2013-04-06 02:17:00,
2013-04-05 21:19:00,41.1,29.5,30.16,East,79,2.0,5.0,63,0.00,,,0.00,0,Wunderground v.1.15,2013-04-06 02:19:00,
2013-04-05 21:22:00,41.1,29.1,30.16,ENE,72,2.0,3.0,62,0.00,,,0.00,0,Wunderground v.1.15,2013-04-06 02:22:00,
2013-04-05 21:24:00,41.1,29.1,30.16,ENE,63,2.0,3.0,62,0.00,,,0.00,0,Wunderground v.1.15,2013-04-06 02:24:00,
2013-04-05 21:26:00,41.2,29.2,30.16,ENE,63,2.0,3.0,62,0.00,,,0.00,0,Wunderground v.1.15,2013-04-06 02:26:00,
2013-04-05 21:29:00,41.2,29.2,30.16,NE,53,2.0,3.0,62,0.00,,,0.00,0,Wunderground v.1.15,2013-04-06 02:29:00,
2013-04-05 21:31:00,41.2,29.2,30.16,ENE,66,2.0,5.0,62,0.00,,,0.00,0,Wunderground v.1.15,2013-04-06 02:31:00,
2013-04-05 21:32:00,41.2,28.8,30.15,ENE,63,3.0,5.0,61,0.00,,,0.00,0,Wunderground v.1.15,2013-04-06 02:32:00,
2013-04-05 21:39:00,41.2,28.8,30.15,NE,48,4.0,5.0,61,0.00,,,0.00,0,Wunderground v.1.15,2013-04-06 02:39:00,
2013-04-05 21:41:00,41.2,28.8,30.15,NE,46,4.0,5.0,61,0.00,,,0.00,0,Wunderground v.1.15,2013-04-06 02:41:00,
2013-04-05 21:42:00,41.1,28.7,30.15,NE,56,4.0,5.0,61,0.00,,,0.00,0,Wunderground v.1.15,2013-04-06 02:42:00,
2013-04-05 21:45:00,41.1,28.7,30.15,NE,55,4.0,5.0,61,0.00,,,0.00,0,Wunderground v.1.15,2013-04-06 02:45:00,
2013-04-05 21:46:00,41.1,29.1,30.15,NE,55,4.0,5.0,62,0.00,,,0.00,0,Wunderground v.1.15,2013-04-06 02:46:00,
2013-04-05 21:50:00,41.1,28.7,30.15,ENE,76,3.0,6.0,61,0.00,,,0.00,0,Wunderground v.1.15,2013-04-06 02:50:00,
2013-04-05 21:51:00,41.1,28.7,30.15,ENE,61,2.0,6.0,61,0.00,,,0.00,0,Wunderground v.1.15,2013-04-06 02:51:00,
2013-04-05 21:52:00,41.0,28.6,30.15,ENE,66,2.0,6.0,61,0.00,,,0.00,0,Wunderground v.1.15,2013-04-06 02:52:00,
2013-04-05 21:54:00,41.1,28.7,30.15,East,80,2.0,6.0,61,0.00,,,0.00,0,Wunderground v.1.15,2013-04-06 02:54:00,
2013-04-05 21:56:00,41.1,28.3,30.15,ENE,63,3.0,8.0,60,0.00,,,0.00,0,Wunderground v.1.15,2013-04-06 02:56:00,
2013-04-05 21:58:00,41.2,28.4,30.15,ENE,78,4.0,8.0,60,0.00,,,0.00,0,Wunderground v.1.15,2013-04-06 02:58:00,
2013-04-05 22:00:00,41.2,28.4,30.14,East,79,5.0,5.0,60,0.00,,,0.00,0,Wunderground v.1.15,2013-04-06 03:00:00,
2013-04-05 22:04:00,41.2,28.4,30.14,NE,54,5.0,7.0,60,0.00,,,0.00,0,Wunderground v.1.15,2013-04-06 03:04:00,
2013-04-05 22:05:00,41.2,28.4,30.14,NE,49,5.0,7.0,60,0.00,,,0.00,0,Wunderground v.1.15,2013-04-06 03:05:00,
2013-04-05 22:06:00,41.2,28.8,30.14,ENE,76,5.0,7.0,61,0.00,,,0.00,0,Wunderground v.1.15,2013-04-06 03:06:00,
2013-04-05 22:10:00,41.2,28.4,30.15,East,91,5.0,5.0,60,0.00,,,0.00,0,Wunderground v.1.15,2013-04-06 03:10:00,
2013-04-05 22:11:00,41.2,28.4,30.15,ENE,66,5.0,5.0,60,0.00,,,0.00,0,Wunderground v.1.15,2013-04-06 03:11:00,
2013-04-05 22:12:00,41.2,28.4,30.15,ESE,115,4.0,5.0,60,0.00,,,0.00,0,Wunderground v.1.15,2013-04-06 03:12:00,
2013-04-05 22:16:00,41.2,28.4,30.16,East,82,4.0,5.0,60,0.00,,,0.00,0,Wunderground v.1.15,2013-04-06 03:16:00,
2013-04-05 22:17:00,41.2,28.4,30.16,East,80,4.0,5.0,60,0.00,,,0.00,0,Wunderground v.1.15,2013-04-06 03:17:00,
2013-04-05 22:19:00,41.2,28.4,30.16,ESE,108,3.0,5.0,60,0.00,,,0.00,0,Wunderground v.1.15,2013-04-06 03:19:00,
2013-04-05 22:22:00,41.1,28.3,30.15,ENE,57,3.0,5.0,60,0.00,,,0.00,0,Wunderground v.1.15,2013-04-06 03:22:00,
2013-04-05 22:23:00,41.2,28.4,30.16,ESE,103,3.0,5.0,60,0.00,,,0.00,0,Wunderground v.1.15,2013-04-06 03:23:00,
2013-04-05 22:26:00,41.2,28.4,30.15,ENE,65,3.0,5.0,60,0.00,,,0.00,0,Wunderground v.1.15,2013-04-06 03:26:00,
2013-04-05 22:29:00,41.1,28.7,30.15,East,87,3.0,5.0,61,0.00,,,0.00,0,Wunderground v.1.15,2013-04-06 03:29:00,
2013-04-05 22:30:00,41.1,28.7,30.15,ENE,72,4.0,4.0,61,0.00,,,0.00,0,Wunderground v.1.15,2013-04-06 03:30:00,
2013-04-05 22:34:00,41.1,28.3,30.14,ENE,71,4.0,7.0,60,0.00,,,0.00,0,Wunderground v.1.15,2013-04-06 03:34:00,
2013-04-05 22:35:00,41.1,28.3,30.14,NE,55,4.0,8.0,60,0.00,,,0.00,0,Wunderground v.1.15,2013-04-06 03:35:00,
2013-04-05 22:38:00,41.1,27.9,30.14,North,351,5.0,8.0,59,0.00,,,0.00,0,Wunderground v.1.15,2013-04-06 03:38:00,
2013-04-05 22:40:00,41.1,27.9,30.13,East,80,6.0,6.0,59,0.00,,,0.00,0,Wunderground v.1.15,2013-04-06 03:40:00,
2013-04-05 22:41:00,41.1,27.9,30.14,East,94,6.0,8.0,59,0.00,,,0.00,0,Wunderground v.1.15,2013-04-06 03:41:00,
2013-04-05 22:45:00,41.2,27.9,30.14,NNE,27,6.0,8.0,59,0.00,,,0.00,0,Wunderground v.1.15,2013-04-06 03:45:00,
2013-04-05 22:46:00,41.2,27.9,30.14,ENE,58,6.0,8.0,59,0.00,,,0.00,0,Wunderground v.1.15,2013-04-06 03:46:00,
2013-04-05 22:48:00,41.1,27.9,30.15,NE,48,6.0,8.0,59,0.00,,,0.00,0,Wunderground v.1.15,2013-04-06 03:48:00,
2013-04-05 22:51:00,41.1,28.3,30.14,East,86,5.0,8.0,60,0.00,,,0.00,0,Wunderground v.1.15,2013-04-06 03:51:00,
2013-04-05 22:52:00,41.0,28.2,30.14,ENE,65,5.0,8.0,60,0.00,,,0.00,0,Wunderground v.1.15,2013-04-06 03:52:00,
2013-04-05 22:53:00,41.0,27.8,30.14,ENE,74,5.0,8.0,59,0.00,,,0.00,0,Wunderground v.1.15,2013-04-06 03:53:00,
2013-04-05 22:56:00,40.9,27.7,30.14,East,79,6.0,11.0,59,0.00,,,0.00,0,Wunderground v.1.15,2013-04-06 03:56:00,
2013-04-05 23:00:00,40.7,27.5,30.13,ENE,71,8.0,12.0,59,0.00,,,0.00,0,Wunderground v.1.15,2013-04-06 04:00:00,
2013-04-05 23:01:00,40.7,27.1,30.13,ENE,67,8.0,14.0,58,0.00,,,0.00,0,Wunderground v.1.15,2013-04-06 04:01:00,
2013-04-05 23:02:00,40.7,26.6,30.13,NNE,32,8.0,14.0,57,0.00,,,0.00,0,Wunderground v.1.15,2013-04-06 04:02:00,
2013-04-05 23:07:00,40.6,26.5,30.14,NE,46,8.0,14.0,57,0.00,,,0.00,0,Wunderground v.1.15,2013-04-06 04:07:00,
2013-04-05 23:09:00,40.6,26.5,30.15,East,79,8.0,14.0,57,0.00,,,0.00,0,Wunderground v.1.15,2013-04-06 04:09:00,
2013-04-05 23:10:00,40.5,26.4,30.14,East,90,8.0,8.0,57,0.00,,,0.00,0,Wunderground v.1.15,2013-04-06 04:10:00,
2013-04-05 23:14:00,40.5,26.4,30.14,ESE,116,8.0,10.0,57,0.00,,,0.00,0,Wunderground v.1.15,2013-04-06 04:14:00,
2013-04-05 23:15:00,40.4,26.8,30.14,ENE,75,7.0,11.0,58,0.00,,,0.00,0,Wunderground v.1.15,2013-04-06 04:15:00,
2013-04-05 23:20:00,40.3,26.3,30.13,NE,46,9.0,9.0,57,0.00,,,0.00,0,Wunderground v.1.15,2013-04-06 04:20:00,
2013-04-05 23:21:00,40.3,26.7,30.13,East,86,9.0,9.0,58,0.00,,,0.00,0,Wunderground v.1.15,2013-04-06 04:21:00,
2013-04-05 23:22:00,40.3,26.7,30.13,SE,142,8.0,9.0,58,0.00,,,0.00,0,Wunderground v.1.15,2013-04-06 04:22:00,
2013-04-05 23:24:00,40.2,26.6,30.14,East,85,8.0,9.0,58,0.00,,,0.00,0,Wunderground v.1.15,2013-04-06 04:24:00,
2013-04-05 23:27:00,40.2,26.6,30.14,ENE,68,8.0,9.0,58,0.00,,,0.00,0,Wunderground v.1.15,2013-04-06 04:27:00,
2013-04-05 23:29:00,40.2,26.6,30.14,ENE,76,8.0,11.0,58,0.00,,,0.00,0,Wunderground v.1.15,2013-04-06 04:29:00,
2013-04-05 23:31:00,40.1,26.5,30.13,ESE,114,7.0,7.0,58,0.00,,,0.00,0,Wunderground v.1.15,2013-04-06 04:31:00,
2013-04-05 23:32:00,40.1,26.5,30.13,ENE,77,6.0,7.0,58,0.00,,,0.00,0,Wunderground v.1.15,2013-04-06 04:32:00,
2013-04-05 23:35:00,40.0,26.8,30.13,East,88,7.0,18.0,59,0.00,,,0.00,0,Wunderground v.1.15,2013-04-06 04:35:00,
2013-04-05 23:37:00,40.0,26.8,30.13,East,97,7.0,18.0,59,0.00,,,0.00,0,Wunderground v.1.15,2013-04-06 04:37:00,
2013-04-05 23:39:00,40.0,26.8,30.13,East,92,7.0,18.0,59,0.00,,,0.00,0,Wunderground v.1.15,2013-04-06 04:39:00,
2013-04-05 23:41:00,39.9,26.7,30.13,East,94,8.0,13.0,59,0.00,,,0.00,0,Wunderground v.1.15,2013-04-06 04:41:00,
2013-04-05 23:42:00,39.9,26.7,30.13,East,93,8.0,13.0,59,0.00,,,0.00,0,Wunderground v.1.15,2013-04-06 04:42:00,
2013-04-05 23:44:00,39.8,27.0,30.13,East,79,8.0,13.0,60,0.00,,,0.00,0,Wunderground v.1.15,2013-04-06 04:44:00,
2013-04-05 23:47:00,39.7,26.9,30.12,ENE,67,8.0,14.0,60,0.00,,,0.00,0,Wunderground v.1.15,2013-04-06 04:47:00,
2013-04-05 23:49:00,39.7,26.9,30.12,SE,130,7.0,14.0,60,0.00,,,0.00,0,Wunderground v.1.15,2013-04-06 04:49:00,
2013-04-05 23:50:00,39.7,27.3,30.12,East,82,7.0,8.0,61,0.00,,,0.00,0,Wunderground v.1.15,2013-04-06 04:50:00,
2013-04-05 23:55:00,39.5,27.5,30.13,East,83,6.0,11.0,62,0.00,,,0.00,0,Wunderground v.1.15,2013-04-06 04:55:00,
2013-04-05 23:56:00,39.5,27.5,30.13,ESE,103,6.0,11.0,62,0.00,,,0.00,0,Wunderground v.1.15,2013-04-06 04:56:00,
2013-04-05 23:57:00,39.5,27.5,30.13,East,86,5.0,11.0,62,0.00,,,0.00,0,Wunderground v.1.15,2013-04-06 04:57:00,
2013-04-05 23:59:00,39.4,27.5,30.13,ENE,60,6.0,12.0,62,0.00,,,0.00,0,Wunderground v.1.15,2013-04-06 04:59:00,